Wetterdaten: Montag, 06.11.2023
Datum Zeit Temp. Aussen Temp. o. S. Temp +5cm Feuchte Auss Luftdruck Regen Sonnenschein Regendauer Solar Windben Empfang
06.11.2023 00:00 10,0 C 9,4 C 6,1 C 90 % 994,5 hPa 0,0 l/m 0 min 0 min 0 W/m 16,1 km/h (3 Bft) 97,87 %
06.11.2023 00:02 10,1 C 9,4 C 6,1 C 90 % 994,5 hPa 0,0 l/m 0 min 0 min 0 W/m 25,7 km/h (4 Bft) 97,22 %
06.11.2023 00:07 10,2 C 9,4 C 6,1 C 89 % 994,5 hPa 0,0 l/m 0 min 0 min 0 W/m 29,0 km/h (5 Bft) 100,00 %
06.11.2023 00:08 10,2 C 9,4 C 6,1 C 89 % 994,7 hPa 0,0 l/m 0 min 0 min 0 W/m 16,1 km/h (3 Bft) 93,94 %
06.11.2023 00:10 10,2 C 9,4 C 6,1 C 89 % 994,6 hPa 0,0 l/m 0 min 0 min 0 W/m 22,5 km/h (4 Bft) 100,00 %
06.11.2023 00:16 10,1 C 9,4 C 6,1 C 89 % 994,6 hPa 0,0 l/m 0 min 0 min 0 W/m 25,7 km/h (4 Bft) 97,56 %
06.11.2023 00:18 10,2 C 9,4 C 6,1 C 89 % 994,7 hPa 0,0 l/m 0 min 0 min 0 W/m 29,0 km/h (5 Bft) 97,87 %
06.11.2023 00:20 10,2 C 9,4 C 6,1 C 89 % 994,7 hPa 0,0 l/m 0 min 0 min 0 W/m 35,4 km/h (5 Bft) 97,87 %
06.11.2023 00:22 10,2 C 9,4 C 6,1 C 89 % 994,7 hPa 0,0 l/m 0 min 0 min 0 W/m 22,5 km/h (4 Bft) 97,83 %
06.11.2023 00:24 10,2 C 9,4 C 6,1 C 89 % 994,7 hPa 0,0 l/m 0 min 0 min 0 W/m 19,3 km/h (3 Bft) 97,87 %
06.11.2023 00:26 10,2 C 9,4 C 6,1 C 89 % 994,8 hPa 0,0 l/m 0 min 0 min 0 W/m 38,6 km/h (5 Bft) 95,74 %
06.11.2023 00:28 10,2 C 9,4 C 6,1 C 89 % 994,8 hPa 0,0 l/m 0 min 0 min 0 W/m 16,1 km/h (3 Bft) 97,87 %
06.11.2023 00:30 10,2 C 9,4 C 6,1 C 89 % 994,8 hPa 0,0 l/m 0 min 0 min 0 W/m 16,1 km/h (3 Bft) 97,87 %
06.11.2023 00:32 10,2 C 9,4 C 6,1 C 89 % 994,8 hPa 0,0 l/m 0 min 0 min 0 W/m 32,2 km/h (5 Bft) 97,87 %
06.11.2023 00:34 10,2 C 9,4 C 6,1 C 89 % 994,8 hPa 0,0 l/m 0 min 0 min 0 W/m 12,9 km/h (3 Bft) 97,87 %
06.11.2023 00:36 10,3 C 9,4 C 6,1 C 89 % 995,0 hPa 0,0 l/m 0 min 0 min 0 W/m 25,7 km/h (4 Bft) 97,87 %
06.11.2023 00:38 10,3 C 9,4 C 6,1 C 89 % 995,0 hPa 0,0 l/m 0 min 0 min 0 W/m 19,3 km/h (3 Bft) 100,00 %
06.11.2023 00:40 10,3 C 9,4 C 6,1 C 89 % 995,1 hPa 0,0 l/m 0 min 0 min 0 W/m 22,5 km/h (4 Bft) 97,83 %
06.11.2023 00:42 10,3 C 9,4 C 6,1 C 89 % 995,0 hPa 0,0 l/m 0 min 0 min 0 W/m 22,5 km/h (4 Bft) 100,00 %
06.11.2023 00:44 10,3 C 9,4 C 6,1 C 89 % 994,9 hPa 0,0 l/m 0 min 0 min 0 W/m 19,3 km/h (3 Bft) 100,00 %
06.11.2023 00:46 10,3 C 10,0 C 6,7 C 89 % 995,1 hPa 0,0 l/m 0 min 0 min 0 W/m 22,5 km/h (4 Bft) 97,87 %
06.11.2023 00:48 10,4 C 10,0 C 6,7 C 88 % 995,1 hPa 0,0 l/m 0 min 0 min 0 W/m 12,9 km/h (3 Bft) 97,87 %
06.11.2023 00:50 10,4 C 10,0 C 6,7 C 88 % 995,2 hPa 0,0 l/m 0 min 0 min 0 W/m 19,3 km/h (3 Bft) 97,87 %
06.11.2023 00:52 10,4 C 10,0 C 6,7 C 88 % 995,1 hPa 0,0 l/m 0 min 0 min 0 W/m 25,7 km/h (4 Bft) 97,87 %
06.11.2023 00:54 10,4 C 10,0 C 6,7 C 88 % 995,1 hPa 0,0 l/m 0 min 0 min 0 W/m 22,5 km/h (4 Bft) 97,92 %
06.11.2023 00:56 10,4 C 10,0 C 6,7 C 88 % 995,1 hPa 0,0 l/m 0 min 0 min 0 W/m 19,3 km/h (3 Bft) 95,74 %
06.11.2023 00:58 10,4 C 10,0 C 6,7 C 88 % 995,2 hPa 0,0 l/m 0 min 0 min 0 W/m 25,7 km/h (4 Bft) 97,87 %
06.11.2023 01:00 10,5 C 10,0 C 6,7 C 88 % 995,1 hPa 0,0 l/m 0 min 0 min 0 W/m 22,5 km/h (4 Bft) 95,74 %
06.11.2023 01:02 10,5 C 10,0 C 6,7 C 88 % 995,2 hPa 0,0 l/m 0 min 0 min 0 W/m 19,3 km/h (3 Bft) 97,87 %
06.11.2023 01:04 10,5 C 10,0 C 6,7 C 88 % 995,2 hPa 0,0 l/m 0 min 0 min 0 W/m 32,2 km/h (5 Bft) 97,62 %
06.11.2023 01:06 10,5 C 10,0 C 6,7 C 88 % 995,2 hPa 0,0 l/m 0 min 0 min 0 W/m 19,3 km/h (3 Bft) 98,44 %
06.11.2023 01:08 10,5 C 10,0 C 6,7 C 88 % 995,2 hPa 0,0 l/m 0 min 0 min 0 W/m 22,5 km/h (4 Bft) 94,29 %
06.11.2023 01:10 10,5 C 10,0 C 6,7 C 88 % 995,1 hPa 0,0 l/m 0 min 0 min 0 W/m 22,5 km/h (4 Bft) 95,74 %
06.11.2023 01:12 10,5 C 10,0 C 6,7 C 88 % 995,1 hPa 0,0 l/m 0 min 0 min 0 W/m 29,0 km/h (5 Bft) 97,87 %
06.11.2023 01:14 10,6 C 10,0 C 6,7 C 88 % 995,2 hPa 0,0 l/m 0 min 0 min 0 W/m 19,3 km/h (3 Bft) 97,87 %
06.11.2023 01:16 10,6 C 10,0 C 6,7 C 88 % 995,3 hPa 0,0 l/m 0 min 0 min 0 W/m 29,0 km/h (5 Bft) 95,74 %
06.11.2023 01:18 10,6 C 10,0 C 6,7 C 88 % 995,2 hPa 0,0 l/m 0 min 0 min 0 W/m 22,5 km/h (4 Bft) 97,87 %
06.11.2023 01:20 10,6 C 10,0 C 6,7 C 88 % 995,3 hPa 0,0 l/m 0 min 0 min 0 W/m 12,9 km/h (3 Bft) 95,74 %
06.11.2023 01:22 10,6 C 10,0 C 6,7 C 88 % 995,3 hPa 0,0 l/m 0 min 0 min 0 W/m 25,7 km/h (4 Bft) 97,87 %
06.11.2023 01:24 10,6 C 10,0 C 6,7 C 88 % 995,3 hPa 0,0 l/m 0 min 0 min 0 W/m 19,3 km/h (3 Bft) 97,87 %
06.11.2023 01:26 10,6 C 10,0 C 6,7 C 87 % 995,3 hPa 0,0 l/m 0 min 0 min 0 W/m 25,7 km/h (4 Bft) 97,83 %
06.11.2023 01:28 10,6 C 10,0 C 6,7 C 87 % 995,4 hPa 0,0 l/m 0 min 0 min 0 W/m 25,7 km/h (4 Bft) 93,62 %
06.11.2023 01:30 10,6 C 10,0 C 6,7 C 87 % 995,3 hPa 0,0 l/m 0 min 0 min 0 W/m 19,3 km/h (3 Bft) 95,74 %
06.11.2023 01:32 10,6 C 10,0 C 6,7 C 87 % 995,3 hPa 0,0 l/m 0 min 0 min 0 W/m 19,3 km/h (3 Bft) 95,74 %
06.11.2023 01:34 10,6 C 10,0 C 6,7 C 87 % 995,4 hPa 0,0 l/m 0 min 0 min 0 W/m 35,4 km/h (5 Bft) 93,62 %
06.11.2023 01:36 10,6 C 10,0 C 6,7 C 87 % 995,4 hPa 0,0 l/m 0 min 0 min 0 W/m 25,7 km/h (4 Bft) 95,74 %
06.11.2023 01:38 10,6 C 10,0 C 6,7 C 87 % 995,5 hPa 0,0 l/m 0 min 2 min 0 W/m 32,2 km/h (5 Bft) 97,87 %
06.11.2023 01:40 10,6 C 10,0 C 6,7 C 87 % 995,7 hPa 0,0 l/m 0 min 2 min 0 W/m 29,0 km/h (5 Bft) 97,87 %
06.11.2023 01:42 10,6 C 10,0 C 6,7 C 87 % 995,5 hPa 0,0 l/m 0 min 0 min 0 W/m 16,1 km/h (3 Bft) 95,74 %
06.11.2023 01:44 10,6 C 10,0 C 6,7 C 87 % 995,5 hPa 0,0 l/m 0 min 0 min 0 W/m 25,7 km/h (4 Bft) 95,74 %
06.11.2023 01:46 10,6 C 10,0 C 6,7 C 87 % 995,6 hPa 0,0 l/m 0 min 0 min 0 W/m 25,7 km/h (4 Bft) 95,74 %
06.11.2023 01:48 10,6 C 9,4 C 6,1 C 88 % 995,7 hPa 0,0 l/m 0 min 0 min 0 W/m 16,1 km/h (3 Bft) 97,83 %
06.11.2023 01:50 10,5 C 9,4 C 6,1 C 88 % 995,6 hPa 0,0 l/m 0 min 0 min 0 W/m 19,3 km/h (3 Bft) 97,87 %
06.11.2023 01:52 10,4 C 9,4 C 6,1 C 88 % 995,6 hPa 0,0 l/m 0 min 0 min 0 W/m 38,6 km/h (5 Bft) 97,87 %
06.11.2023 01:54 10,4 C 9,4 C 6,7 C 88 % 995,7 hPa 0,0 l/m 0 min 0 min 0 W/m 25,7 km/h (4 Bft) 97,87 %
06.11.2023 01:56 10,4 C 9,4 C 6,7 C 88 % 995,7 hPa 0,0 l/m 0 min 0 min 0 W/m 38,6 km/h (5 Bft) 97,87 %
06.11.2023 01:58 10,4 C 10,0 C 6,7 C 88 % 995,8 hPa 0,0 l/m 0 min 0 min 0 W/m 16,1 km/h (3 Bft) 93,62 %
06.11.2023 02:00 10,4 C 9,4 C 6,7 C 88 % 995,7 hPa 0,0 l/m 0 min 0 min 0 W/m 19,3 km/h (3 Bft) 95,74 %
06.11.2023 02:02 10,4 C 10,0 C 6,7 C 88 % 995,7 hPa 0,0 l/m 0 min 0 min 0 W/m 38,6 km/h (5 Bft) 95,45 %
06.11.2023 02:04 10,4 C 10,0 C 6,7 C 88 % 995,9 hPa 0,0 l/m 0 min 0 min 0 W/m 22,5 km/h (4 Bft) 93,88 %
06.11.2023 02:06 10,4 C 10,0 C 6,7 C 88 % 996,0 hPa 0,0 l/m 0 min 0 min 0 W/m 32,2 km/h (5 Bft) 95,83 %
06.11.2023 02:08 10,4 C 10,0 C 6,7 C 88 % 996,0 hPa 0,0 l/m 0 min 0 min 0 W/m 19,3 km/h (3 Bft) 95,74 %
06.11.2023 02:10 10,4 C 10,0 C 6,7 C 88 % 995,9 hPa 0,0 l/m 0 min 0 min 0 W/m 16,1 km/h (3 Bft) 97,87 %
06.11.2023 02:12 10,4 C 10,0 C 6,7 C 88 % 995,9 hPa 0,0 l/m 0 min 0 min 0 W/m 22,5 km/h (4 Bft) 97,87 %
06.11.2023 02:14 10,4 C 10,0 C 6,7 C 88 % 995,9 hPa 0,0 l/m 0 min 0 min 0 W/m 29,0 km/h (5 Bft) 97,87 %
06.11.2023 02:16 10,5 C 10,0 C 6,7 C 88 % 995,9 hPa 0,0 l/m 0 min 0 min 0 W/m 25,7 km/h (4 Bft) 97,83 %
06.11.2023 02:18 10,5 C 10,0 C 6,7 C 88 % 995,9 hPa 0,0 l/m 0 min 0 min 0 W/m 25,7 km/h (4 Bft) 97,87 %
06.11.2023 02:20 10,5 C 10,0 C 6,7 C 88 % 996,0 hPa 0,0 l/m 0 min 2 min 0 W/m 32,2 km/h (5 Bft) 97,87 %
06.11.2023 02:22 10,5 C 10,0 C 6,1 C 88 % 995,9 hPa 0,0 l/m 0 min 2 min 0 W/m 16,1 km/h (3 Bft) 95,74 %
06.11.2023 02:24 10,5 C 10,0 C 6,1 C 88 % 996,0 hPa 0,0 l/m 0 min 0 min 0 W/m 16,1 km/h (3 Bft) 97,87 %
06.11.2023 02:26 10,5 C 10,0 C 6,1 C 88 % 996,0 hPa 0,0 l/m 0 min 0 min 0 W/m 16,1 km/h (3 Bft) 97,87 %
06.11.2023 02:28 10,5 C 10,0 C 6,1 C 88 % 996,1 hPa 0,0 l/m 0 min 0 min 0 W/m 16,1 km/h (3 Bft) 95,65 %
06.11.2023 02:30 10,5 C 10,0 C 6,1 C 88 % 996,1 hPa 0,0 l/m 0 min 0 min 0 W/m 22,5 km/h (4 Bft) 95,74 %
06.11.2023 02:32 10,5 C 10,0 C 6,7 C 88 % 996,2 hPa 0,0 l/m 0 min 0 min 0 W/m 22,5 km/h (4 Bft) 100,00 %
06.11.2023 02:34 10,5 C 10,0 C 6,7 C 88 % 996,2 hPa 0,0 l/m 0 min 0 min 0 W/m 19,3 km/h (3 Bft) 100,00 %
06.11.2023 02:36 10,5 C 10,0 C 6,7 C 88 % 996,2 hPa 0,0 l/m 0 min 0 min 0 W/m 25,7 km/h (4 Bft) 97,87 %
06.11.2023 02:38 10,6 C 10,0 C 6,7 C 87 % 996,2 hPa 0,0 l/m 0 min 0 min 0 W/m 25,7 km/h (4 Bft) 100,00 %
06.11.2023 02:40 10,6 C 10,0 C 6,7 C 87 % 996,3 hPa 0,0 l/m 0 min 0 min 0 W/m 32,2 km/h (5 Bft) 100,00 %
06.11.2023 02:42 10,6 C 10,0 C 6,7 C 87 % 996,3 hPa 0,0 l/m 0 min 0 min 0 W/m 22,5 km/h (4 Bft) 100,00 %
06.11.2023 02:44 10,6 C 10,0 C 6,7 C 87 % 996,3 hPa 0,0 l/m 0 min 0 min 0 W/m 25,7 km/h (4 Bft) 100,00 %
06.11.2023 02:46 10,6 C 10,0 C 6,7 C 87 % 996,3 hPa 0,0 l/m 0 min 0 min 0 W/m 25,7 km/h (4 Bft) 100,00 %
06.11.2023 02:48 10,5 C 10,0 C 6,7 C 87 % 996,4 hPa 0,0 l/m 0 min 0 min 0 W/m 19,3 km/h (3 Bft) 100,00 %
06.11.2023 02:50 10,5 C 10,0 C 6,7 C 87 % 996,3 hPa 0,0 l/m 0 min 0 min 0 W/m 19,3 km/h (3 Bft) 100,00 %
06.11.2023 02:52 10,5 C 10,0 C 6,7 C 87 % 996,3 hPa 0,0 l/m 0 min 0 min 0 W/m 22,5 km/h (4 Bft) 97,83 %
06.11.2023 02:54 10,5 C 10,0 C 6,7 C 87 % 996,4 hPa 0,0 l/m 0 min 0 min 0 W/m 19,3 km/h (3 Bft) 100,00 %
06.11.2023 02:56 10,5 C 10,0 C 6,7 C 87 % 996,4 hPa 0,0 l/m 0 min 0 min 0 W/m 22,5 km/h (4 Bft) 100,00 %
06.11.2023 02:58 10,4 C 10,0 C 6,7 C 87 % 996,4 hPa 0,0 l/m 0 min 0 min 0 W/m 29,0 km/h (5 Bft) 100,00 %
06.11.2023 03:00 10,4 C 9,4 C 6,7 C 88 % 996,3 hPa 0,0 l/m 0 min 0 min 0 W/m 19,3 km/h (3 Bft) 100,00 %
06.11.2023 03:02 10,4 C 9,4 C 6,7 C 88 % 996,4 hPa 0,0 l/m 0 min 0 min 0 W/m 19,3 km/h (3 Bft) 100,00 %
06.11.2023 03:04 10,4 C 9,4 C 6,1 C 88 % 996,4 hPa 0,0 l/m 0 min 0 min 0 W/m 19,3 km/h (3 Bft) 100,00 %
06.11.2023 03:06 10,3 C 9,4 C 6,1 C 88 % 996,3 hPa 0,0 l/m 0 min 0 min 0 W/m 12,9 km/h (3 Bft) 100,00 %
06.11.2023 03:08 10,3 C 9,4 C 6,1 C 88 % 996,4 hPa 0,0 l/m 0 min 0 min 0 W/m 22,5 km/h (4 Bft) 100,00 %
06.11.2023 03:10 10,3 C 9,4 C 6,1 C 88 % 996,5 hPa 0,0 l/m 0 min 0 min 0 W/m 22,5 km/h (4 Bft) 97,87 %
06.11.2023 03:12 10,3 C 9,4 C 6,1 C 88 % 996,4 hPa 0,0 l/m 0 min 0 min 0 W/m 16,1 km/h (3 Bft) 100,00 %
06.11.2023 03:14 10,3 C 9,4 C 6,1 C 88 % 996,4 hPa 0,0 l/m 0 min 0 min 0 W/m 12,9 km/h (3 Bft) 100,00 %
06.11.2023 03:16 10,3 C 9,4 C 6,1 C 88 % 996,4 hPa 0,0 l/m 0 min 0 min 0 W/m 12,9 km/h (3 Bft) 100,00 %
06.11.2023 03:18 10,2 C 9,4 C 6,1 C 88 % 996,4 hPa 0,0 l/m 0 min 0 min 0 W/m 16,1 km/h (3 Bft) 100,00 %
06.11.2023 03:20 10,2 C 9,4 C 6,1 C 88 % 996,5 hPa 0,0 l/m 0 min 0 min 0 W/m 25,7 km/h (4 Bft) 100,00 %
06.11.2023 03:24 10,2 C 9,4 C 6,1 C 88 % 996,5 hPa 0,0 l/m 0 min 0 min 0 W/m 12,9 km/h (3 Bft) 96,15 %
06.11.2023 03:26 10,1 C 9,4 C 6,1 C 88 % 996,5 hPa 0,0 l/m 0 min 0 min 0 W/m 19,3 km/h (3 Bft) 100,00 %
06.11.2023 03:28 10,1 C 9,4 C 6,1 C 88 % 996,6 hPa 0,0 l/m 0 min 0 min 0 W/m 29,0 km/h (5 Bft) 100,00 %
06.11.2023 03:30 10,1 C 9,4 C 6,1 C 88 % 996,6 hPa 0,0 l/m 0 min 0 min 0 W/m 29,0 km/h (5 Bft) 100,00 %
06.11.2023 03:32 10,1 C 9,4 C 6,1 C 88 % 996,5 hPa 0,0 l/m 0 min 0 min 0 W/m 12,9 km/h (3 Bft) 97,50 %
06.11.2023 03:34 10,1 C 9,4 C 6,1 C 89 % 996,7 hPa 0,0 l/m 0 min 0 min 0 W/m 32,2 km/h (5 Bft) 100,00 %
06.11.2023 03:36 10,1 C 9,4 C 6,1 C 89 % 996,8 hPa 0,0 l/m 0 min 0 min 0 W/m 32,2 km/h (5 Bft) 100,00 %
06.11.2023 03:38 10,1 C 9,4 C 6,1 C 89 % 996,7 hPa 0,0 l/m 0 min 0 min 0 W/m 29,0 km/h (5 Bft) 100,00 %
06.11.2023 03:40 10,0 C 9,4 C 6,1 C 89 % 996,6 hPa 0,0 l/m 0 min 0 min 0 W/m 19,3 km/h (3 Bft) 100,00 %
06.11.2023 03:42 10,0 C 9,4 C 6,1 C 89 % 996,8 hPa 0,0 l/m 0 min 0 min 0 W/m 29,0 km/h (5 Bft) 97,83 %
06.11.2023 03:44 9,9 C 9,4 C 6,1 C 89 % 996,8 hPa 0,0 l/m 0 min 0 min 0 W/m 19,3 km/h (3 Bft) 97,87 %
06.11.2023 03:46 9,9 C 9,4 C 6,1 C 89 % 996,7 hPa 0,0 l/m 0 min 0 min 0 W/m 16,1 km/h (3 Bft) 95,74 %
06.11.2023 03:48 9,9 C 9,4 C 6,1 C 89 % 996,9 hPa 0,0 l/m 0 min 0 min 0 W/m 25,7 km/h (4 Bft) 95,74 %
06.11.2023 03:50 9,9 C 9,4 C 6,1 C 89 % 996,8 hPa 0,0 l/m 0 min 0 min 0 W/m 16,1 km/h (3 Bft) 97,87 %
06.11.2023 03:52 9,9 C 9,4 C 6,1 C 89 % 996,9 hPa 0,0 l/m 0 min 0 min 0 W/m 29,0 km/h (5 Bft) 93,62 %
06.11.2023 03:54 9,9 C 9,4 C 6,1 C 89 % 996,9 hPa 0,0 l/m 0 min 0 min 0 W/m 25,7 km/h (4 Bft) 97,56 %
06.11.2023 03:56 9,9 C 9,4 C 6,1 C 89 % 997,0 hPa 0,0 l/m 0 min 0 min 0 W/m 19,3 km/h (3 Bft) 91,30 %
06.11.2023 03:58 9,9 C 9,4 C 6,1 C 90 % 997,0 hPa 0,0 l/m 0 min 0 min 0 W/m 19,3 km/h (3 Bft) 95,74 %
06.11.2023 04:00 9,9 C 9,4 C 6,1 C 90 % 997,0 hPa 0,0 l/m 0 min 0 min 0 W/m 22,5 km/h (4 Bft) 93,62 %
06.11.2023 04:02 9,9 C 9,4 C 6,1 C 90 % 997,1 hPa 0,0 l/m 0 min 0 min 0 W/m 19,3 km/h (3 Bft) 93,62 %
06.11.2023 04:04 9,9 C 9,4 C 6,1 C 90 % 997,2 hPa 0,0 l/m 0 min 0 min 0 W/m 22,5 km/h (4 Bft) 94,00 %
06.11.2023 04:08 9,9 C 9,4 C 6,1 C 90 % 997,2 hPa 0,0 l/m 0 min 0 min 0 W/m 19,3 km/h (3 Bft) 95,88 %
06.11.2023 04:10 9,9 C 9,4 C 6,1 C 90 % 997,3 hPa 0,0 l/m 0 min 0 min 0 W/m 22,5 km/h (4 Bft) 91,30 %
06.11.2023 04:12 9,9 C 9,4 C 6,1 C 90 % 997,3 hPa 0,0 l/m 0 min 0 min 0 W/m 22,5 km/h (4 Bft) 93,62 %
06.11.2023 04:14 9,9 C 9,4 C 6,1 C 90 % 997,3 hPa 0,0 l/m 0 min 0 min 0 W/m 25,7 km/h (4 Bft) 91,49 %
06.11.2023 04:16 9,9 C 9,4 C 6,1 C 90 % 997,3 hPa 0,0 l/m 0 min 0 min 0 W/m 19,3 km/h (3 Bft) 91,49 %
06.11.2023 04:18 9,9 C 9,4 C 6,1 C 90 % 997,4 hPa 0,0 l/m 0 min 0 min 0 W/m 22,5 km/h (4 Bft) 91,49 %
06.11.2023 04:20 9,9 C 9,4 C 6,1 C 90 % 997,4 hPa 0,2 l/m 0 min 0 min 0 W/m 25,7 km/h (4 Bft) 95,74 %
06.11.2023 04:22 9,9 C 9,4 C 6,1 C 90 % 997,6 hPa 0,0 l/m 0 min 0 min 0 W/m 19,3 km/h (3 Bft) 91,49 %
06.11.2023 04:24 9,9 C 9,4 C 6,1 C 90 % 997,5 hPa 0,0 l/m 0 min 0 min 0 W/m 22,5 km/h (4 Bft) 95,74 %
06.11.2023 04:26 9,9 C 9,4 C 6,1 C 90 % 997,7 hPa 0,0 l/m 0 min 0 min 0 W/m 16,1 km/h (3 Bft) 95,65 %
06.11.2023 04:28 9,9 C 9,4 C 6,1 C 90 % 997,6 hPa 0,0 l/m 0 min 0 min 0 W/m 16,1 km/h (3 Bft) 93,62 %
06.11.2023 04:30 9,9 C 9,4 C 6,1 C 90 % 997,6 hPa 0,0 l/m 0 min 0 min 0 W/m 25,7 km/h (4 Bft) 95,74 %
06.11.2023 04:32 9,9 C 9,4 C 6,1 C 90 % 997,7 hPa 0,0 l/m 0 min 0 min 0 W/m 22,5 km/h (4 Bft) 93,62 %
06.11.2023 04:34 9,9 C 9,4 C 6,1 C 90 % 997,6 hPa 0,0 l/m 0 min 0 min 0 W/m 16,1 km/h (3 Bft) 97,87 %
06.11.2023 04:36 9,9 C 9,4 C 6,1 C 90 % 997,7 hPa 0,0 l/m 0 min 0 min 0 W/m 22,5 km/h (4 Bft) 97,87 %
06.11.2023 04:38 9,9 C 9,4 C 6,1 C 90 % 997,7 hPa 0,0 l/m 0 min 0 min 0 W/m 22,5 km/h (4 Bft) 97,87 %
06.11.2023 04:40 9,9 C 9,4 C 6,1 C 90 % 997,7 hPa 0,0 l/m 0 min 0 min 0 W/m 16,1 km/h (3 Bft) 95,74 %
06.11.2023 04:42 9,9 C 9,4 C 6,1 C 90 % 997,8 hPa 0,0 l/m 0 min 0 min 0 W/m 16,1 km/h (3 Bft) 97,83 %
06.11.2023 04:44 9,9 C 9,4 C 6,1 C 90 % 997,9 hPa 0,0 l/m 0 min 0 min 0 W/m 32,2 km/h (5 Bft) 100,00 %
06.11.2023 04:46 9,9 C 9,4 C 6,1 C 89 % 997,9 hPa 0,0 l/m 0 min 0 min 0 W/m 19,3 km/h (3 Bft) 100,00 %
06.11.2023 04:48 9,9 C 9,4 C 6,1 C 89 % 997,9 hPa 0,0 l/m 0 min 0 min 0 W/m 22,5 km/h (4 Bft) 100,00 %
06.11.2023 04:50 9,9 C 9,4 C 6,1 C 89 % 997,8 hPa 0,0 l/m 0 min 0 min 0 W/m 19,3 km/h (3 Bft) 97,87 %
06.11.2023 04:52 9,9 C 8,9 C 6,1 C 89 % 997,9 hPa 0,0 l/m 0 min 0 min 0 W/m 16,1 km/h (3 Bft) 100,00 %
06.11.2023 04:54 9,8 C 8,9 C 6,1 C 89 % 998,0 hPa 0,0 l/m 0 min 0 min 0 W/m 19,3 km/h (3 Bft) 100,00 %
06.11.2023 04:56 9,8 C 8,9 C 5,6 C 89 % 998,0 hPa 0,0 l/m 0 min 0 min 0 W/m 19,3 km/h (3 Bft) 100,00 %
06.11.2023 04:58 9,8 C 8,9 C 5,6 C 89 % 998,0 hPa 0,0 l/m 0 min 0 min 0 W/m 22,5 km/h (4 Bft) 100,00 %
06.11.2023 05:00 9,8 C 8,9 C 5,6 C 89 % 997,8 hPa 0,0 l/m 0 min 0 min 0 W/m 22,5 km/h (4 Bft) 100,00 %
06.11.2023 05:02 9,8 C 8,9 C 5,6 C 89 % 998,1 hPa 0,0 l/m 0 min 0 min 0 W/m 19,3 km/h (3 Bft) 100,00 %
06.11.2023 05:04 9,8 C 8,9 C 5,6 C 89 % 998,0 hPa 0,0 l/m 0 min 0 min 0 W/m 19,3 km/h (3 Bft) 100,00 %
06.11.2023 05:10 9,7 C 8,9 C 5,6 C 89 % 998,0 hPa 0,0 l/m 0 min 0 min 0 W/m 29,0 km/h (5 Bft) 99,30 %
06.11.2023 05:12 9,7 C 8,9 C 5,6 C 89 % 998,1 hPa 0,0 l/m 0 min 0 min 0 W/m 12,9 km/h (3 Bft) 97,87 %
06.11.2023 05:14 9,7 C 8,9 C 5,6 C 89 % 998,1 hPa 0,0 l/m 0 min 0 min 0 W/m 19,3 km/h (3 Bft) 100,00 %
06.11.2023 05:16 9,7 C 8,9 C 5,6 C 89 % 998,2 hPa 0,0 l/m 0 min 0 min 0 W/m 12,9 km/h (3 Bft) 100,00 %
06.11.2023 05:18 9,7 C 8,9 C 5,6 C 89 % 998,2 hPa 0,0 l/m 0 min 0 min 0 W/m 12,9 km/h (3 Bft) 100,00 %
06.11.2023 05:20 9,7 C 8,9 C 5,6 C 89 % 998,2 hPa 0,0 l/m 0 min 0 min 0 W/m 38,6 km/h (5 Bft) 100,00 %
06.11.2023 05:22 9,7 C 8,9 C 5,6 C 89 % 998,3 hPa 0,0 l/m 0 min 0 min 0 W/m 19,3 km/h (3 Bft) 100,00 %
06.11.2023 05:24 9,6 C 8,9 C 5,6 C 89 % 998,3 hPa 0,0 l/m 0 min 0 min 0 W/m 19,3 km/h (3 Bft) 100,00 %
06.11.2023 05:26 9,6 C 8,9 C 5,6 C 89 % 998,3 hPa 0,0 l/m 0 min 0 min 0 W/m 25,7 km/h (4 Bft) 100,00 %
06.11.2023 05:28 9,7 C 8,9 C 5,6 C 89 % 998,4 hPa 0,0 l/m 0 min 0 min 0 W/m 32,2 km/h (5 Bft) 100,00 %
06.11.2023 05:30 9,7 C 8,9 C 5,6 C 89 % 998,4 hPa 0,0 l/m 0 min 0 min 0 W/m 19,3 km/h (3 Bft) 100,00 %
06.11.2023 05:32 9,7 C 8,9 C 5,6 C 89 % 998,5 hPa 0,0 l/m 0 min 0 min 0 W/m 19,3 km/h (3 Bft) 100,00 %
06.11.2023 05:34 9,7 C 8,9 C 5,6 C 89 % 998,5 hPa 0,0 l/m 0 min 0 min 0 W/m 22,5 km/h (4 Bft) 97,83 %
06.11.2023 05:36 9,7 C 8,9 C 5,6 C 89 % 998,5 hPa 0,0 l/m 0 min 0 min 0 W/m 16,1 km/h (3 Bft) 100,00 %
06.11.2023 05:38 9,7 C 8,9 C 5,6 C 89 % 998,5 hPa 0,0 l/m 0 min 0 min 0 W/m 19,3 km/h (3 Bft) 100,00 %
06.11.2023 05:40 9,7 C 8,9 C 5,6 C 89 % 998,4 hPa 0,0 l/m 0 min 0 min 0 W/m 29,0 km/h (5 Bft) 100,00 %
06.11.2023 05:42 9,7 C 8,9 C 5,6 C 89 % 998,5 hPa 0,0 l/m 0 min 0 min 0 W/m 25,7 km/h (4 Bft) 100,00 %
06.11.2023 05:44 9,7 C 8,9 C 5,6 C 89 % 998,5 hPa 0,0 l/m 0 min 0 min 0 W/m 16,1 km/h (3 Bft) 97,87 %
06.11.2023 05:46 9,7 C 8,9 C 5,6 C 89 % 998,5 hPa 0,0 l/m 0 min 0 min 0 W/m 19,3 km/h (3 Bft) 95,74 %
06.11.2023 05:48 9,7 C 8,9 C 5,6 C 89 % 998,5 hPa 0,0 l/m 0 min 0 min 0 W/m 25,7 km/h (4 Bft) 97,83 %
06.11.2023 05:50 9,7 C 8,9 C 5,6 C 89 % 998,5 hPa 0,0 l/m 0 min 0 min 0 W/m 19,3 km/h (3 Bft) 97,87 %
06.11.2023 05:52 9,8 C 8,9 C 5,6 C 89 % 998,6 hPa 0,0 l/m 0 min 0 min 0 W/m 19,3 km/h (3 Bft) 95,74 %
06.11.2023 05:54 9,8 C 9,4 C 5,6 C 89 % 998,7 hPa 0,0 l/m 0 min 0 min 0 W/m 19,3 km/h (3 Bft) 97,87 %
06.11.2023 05:56 9,8 C 9,4 C 6,1 C 89 % 998,8 hPa 0,0 l/m 0 min 0 min 0 W/m 25,7 km/h (4 Bft) 97,87 %
06.11.2023 05:58 9,8 C 9,4 C 6,1 C 89 % 998,6 hPa 0,0 l/m 0 min 0 min 0 W/m 25,7 km/h (4 Bft) 97,87 %
06.11.2023 06:00 9,8 C 9,4 C 5,6 C 89 % 998,7 hPa 0,0 l/m 0 min 0 min 0 W/m 19,3 km/h (3 Bft) 98,04 %
06.11.2023 06:02 9,8 C 9,4 C 5,6 C 89 % 998,7 hPa 0,0 l/m 0 min 2 min 0 W/m 32,2 km/h (5 Bft) 97,67 %
06.11.2023 06:04 9,8 C 9,4 C 5,6 C 89 % 998,9 hPa 0,0 l/m 0 min 0 min 0 W/m 22,5 km/h (4 Bft) 98,00 %
06.11.2023 06:08 9,8 C 8,9 C 5,6 C 89 % 998,8 hPa 0,0 l/m 0 min 0 min 0 W/m 25,7 km/h (4 Bft) 97,70 %
06.11.2023 06:10 9,8 C 8,9 C 5,6 C 89 % 998,8 hPa 0,0 l/m 0 min 0 min 0 W/m 12,9 km/h (3 Bft) 97,87 %
06.11.2023 06:12 9,7 C 8,9 C 5,6 C 89 % 998,8 hPa 0,0 l/m 0 min 0 min 0 W/m 9,7 km/h (2 Bft) 95,74 %
06.11.2023 06:16 9,7 C 8,9 C 5,6 C 89 % 998,8 hPa 0,0 l/m 0 min 0 min 0 W/m 19,3 km/h (3 Bft) 96,81 %
06.11.2023 06:18 9,7 C 8,9 C 5,6 C 89 % 998,9 hPa 0,0 l/m 0 min 0 min 0 W/m 25,7 km/h (4 Bft) 97,83 %
06.11.2023 06:20 9,6 C 8,9 C 5,6 C 89 % 998,9 hPa 0,0 l/m 0 min 0 min 0 W/m 16,1 km/h (3 Bft) 100,00 %
06.11.2023 06:22 9,6 C 8,9 C 5,6 C 89 % 998,9 hPa 0,0 l/m 0 min 0 min 0 W/m 16,1 km/h (3 Bft) 97,87 %
06.11.2023 06:24 9,6 C 8,9 C 5,6 C 89 % 999,0 hPa 0,0 l/m 0 min 0 min 0 W/m 19,3 km/h (3 Bft) 95,74 %
06.11.2023 06:26 9,6 C 8,9 C 5,6 C 90 % 999,0 hPa 0,0 l/m 0 min 0 min 0 W/m 19,3 km/h (3 Bft) 100,00 %
06.11.2023 06:28 9,6 C 8,9 C 5,6 C 90 % 999,1 hPa 0,0 l/m 0 min 0 min 0 W/m 22,5 km/h (4 Bft) 97,87 %
06.11.2023 06:30 9,6 C 8,9 C 5,6 C 90 % 999,1 hPa 0,0 l/m 0 min 0 min 0 W/m 29,0 km/h (5 Bft) 97,87 %
06.11.2023 06:32 9,6 C 8,9 C 5,6 C 90 % 999,1 hPa 0,0 l/m 0 min 0 min 0 W/m 25,7 km/h (4 Bft) 95,65 %
06.11.2023 06:34 9,6 C 8,9 C 5,6 C 90 % 999,2 hPa 0,0 l/m 0 min 0 min 0 W/m 19,3 km/h (3 Bft) 97,87 %
06.11.2023 06:36 9,6 C 8,9 C 5,6 C 90 % 999,2 hPa 0,0 l/m 0 min 0 min 0 W/m 22,5 km/h (4 Bft) 97,87 %
06.11.2023 06:38 9,6 C 8,9 C 5,6 C 90 % 999,2 hPa 0,0 l/m 0 min 0 min 0 W/m 19,3 km/h (3 Bft) 93,62 %
06.11.2023 06:40 9,6 C 8,9 C 5,6 C 90 % 999,4 hPa 0,0 l/m 0 min 0 min 0 W/m 19,3 km/h (3 Bft) 97,87 %
06.11.2023 06:42 9,7 C 8,9 C 5,6 C 90 % 999,4 hPa 0,0 l/m 0 min 0 min 0 W/m 35,4 km/h (5 Bft) 95,74 %
06.11.2023 06:44 9,7 C 8,9 C 5,6 C 90 % 999,4 hPa 0,0 l/m 0 min 0 min 0 W/m 19,3 km/h (3 Bft) 93,62 %
06.11.2023 06:46 9,7 C 9,4 C 6,1 C 90 % 999,5 hPa 0,0 l/m 0 min 0 min 0 W/m 19,3 km/h (3 Bft) 95,65 %
06.11.2023 06:48 9,8 C 8,9 C 5,6 C 90 % 999,4 hPa 0,0 l/m 0 min 0 min 0 W/m 12,9 km/h (3 Bft) 93,62 %
06.11.2023 06:50 9,7 C 8,9 C 5,6 C 89 % 999,5 hPa 0,0 l/m 0 min 0 min 0 W/m 19,3 km/h (3 Bft) 95,74 %
06.11.2023 06:52 9,7 C 8,9 C 5,6 C 89 % 999,4 hPa 0,0 l/m 0 min 0 min 0 W/m 16,1 km/h (3 Bft) 95,74 %
06.11.2023 06:54 9,7 C 8,9 C 5,6 C 89 % 999,5 hPa 0,0 l/m 0 min 0 min 0 W/m 19,3 km/h (3 Bft) 94,34 %
06.11.2023 06:56 9,7 C 8,9 C 5,6 C 89 % 999,4 hPa 0,0 l/m 0 min 0 min 0 W/m 25,7 km/h (4 Bft) 93,62 %
06.11.2023 06:58 9,8 C 8,9 C 5,6 C 89 % 999,6 hPa 0,0 l/m 0 min 0 min 0 W/m 35,4 km/h (5 Bft) 95,24 %
06.11.2023 07:00 9,8 C 8,9 C 5,6 C 89 % 999,5 hPa 0,0 l/m 0 min 0 min 0 W/m 25,7 km/h (4 Bft) 95,65 %
06.11.2023 07:02 9,8 C 9,4 C 6,1 C 89 % 999,5 hPa 0,0 l/m 0 min 0 min 0 W/m 16,1 km/h (3 Bft) 93,62 %
06.11.2023 07:04 9,8 C 9,4 C 6,1 C 89 % 999,5 hPa 0,0 l/m 0 min 0 min 0 W/m 19,3 km/h (3 Bft) 94,12 %
06.11.2023 07:06 9,8 C 9,4 C 6,1 C 89 % 999,5 hPa 0,0 l/m 0 min 0 min 0 W/m 16,1 km/h (3 Bft) 95,74 %
06.11.2023 07:08 9,8 C 8,9 C 5,6 C 89 % 999,6 hPa 0,0 l/m 0 min 0 min 0 W/m 22,5 km/h (4 Bft) 95,74 %
06.11.2023 07:10 9,8 C 8,9 C 5,6 C 89 % 999,6 hPa 0,0 l/m 0 min 0 min 0 W/m 29,0 km/h (5 Bft) 97,87 %
06.11.2023 07:12 9,8 C 8,9 C 5,6 C 89 % 999,6 hPa 0,0 l/m 0 min 0 min 0 W/m 22,5 km/h (4 Bft) 97,83 %
06.11.2023 07:14 9,8 C 8,9 C 5,6 C 89 % 999,6 hPa 0,0 l/m 0 min 0 min 0 W/m 35,4 km/h (5 Bft) 97,87 %
06.11.2023 07:16 9,8 C 8,9 C 5,6 C 89 % 999,6 hPa 0,0 l/m 0 min 0 min 0 W/m 19,3 km/h (3 Bft) 94,74 %
06.11.2023 07:18 9,8 C 8,9 C 5,6 C 89 % 999,8 hPa 0,0 l/m 0 min 0 min 0 W/m 22,5 km/h (4 Bft) 95,74 %
06.11.2023 07:20 9,8 C 8,9 C 5,6 C 89 % 999,7 hPa 0,0 l/m 0 min 0 min 0 W/m 19,3 km/h (3 Bft) 97,87 %
06.11.2023 07:22 9,8 C 8,9 C 5,6 C 89 % 999,7 hPa 0,0 l/m 0 min 0 min 0 W/m 22,5 km/h (4 Bft) 97,87 %
06.11.2023 07:24 9,8 C 8,9 C 5,6 C 89 % 999,9 hPa 0,0 l/m 0 min 0 min 0 W/m 32,2 km/h (5 Bft) 95,74 %
06.11.2023 07:26 9,8 C 8,9 C 5,6 C 89 % 999,9 hPa 0,0 l/m 0 min 0 min 0 W/m 22,5 km/h (4 Bft) 97,87 %
06.11.2023 07:28 9,8 C 8,9 C 5,6 C 89 % 999,9 hPa 0,0 l/m 0 min 0 min 0 W/m 22,5 km/h (4 Bft) 95,74 %
06.11.2023 07:30 9,8 C 8,9 C 5,6 C 89 % 999,9 hPa 0,0 l/m 0 min 0 min 0 W/m 22,5 km/h (4 Bft) 95,74 %
06.11.2023 07:32 9,8 C 8,9 C 5,6 C 89 % 999,9 hPa 0,0 l/m 0 min 0 min 0 W/m 19,3 km/h (3 Bft) 97,83 %
06.11.2023 07:34 9,8 C 8,9 C 5,6 C 89 % 1000,0 hPa 0,0 l/m 0 min 0 min 0 W/m 41,8 km/h (6 Bft) 100,00 %
06.11.2023 07:36 9,7 C 8,9 C 5,6 C 89 % 1000,1 hPa 0,0 l/m 0 min 0 min 0 W/m 25,7 km/h (4 Bft) 97,87 %
06.11.2023 07:38 9,7 C 8,9 C 5,6 C 89 % 1000,1 hPa 0,0 l/m 0 min 0 min 0 W/m 32,2 km/h (5 Bft) 95,74 %
06.11.2023 07:40 9,7 C 8,9 C 5,6 C 89 % 1000,0 hPa 0,0 l/m 0 min 0 min 0 W/m 19,3 km/h (3 Bft) 100,00 %
06.11.2023 07:42 9,7 C 8,9 C 5,6 C 89 % 1000,0 hPa 0,0 l/m 0 min 0 min 4 W/m 19,3 km/h (3 Bft) 95,74 %
06.11.2023 07:44 9,7 C 8,9 C 5,6 C 89 % 1000,1 hPa 0,0 l/m 0 min 0 min 5 W/m 22,5 km/h (4 Bft) 97,87 %
06.11.2023 07:46 9,7 C 8,9 C 5,6 C 89 % 1000,0 hPa 0,0 l/m 0 min 0 min 6 W/m 22,5 km/h (4 Bft) 68,09 %
06.11.2023 07:48 9,7 C 8,9 C 5,6 C 89 % 1000,0 hPa 0,0 l/m 0 min 0 min 8 W/m 19,3 km/h (3 Bft) 82,05 %
06.11.2023 07:50 9,7 C 8,9 C 5,6 C 89 % 1000,2 hPa 0,0 l/m 0 min 0 min 10 W/m 22,5 km/h (4 Bft) 97,87 %
06.11.2023 07:52 9,7 C 8,9 C 5,6 C 89 % 1000,1 hPa 0,0 l/m 0 min 0 min 12 W/m 16,1 km/h (3 Bft) 97,87 %
06.11.2023 07:54 9,6 C 8,9 C 5,6 C 89 % 1000,2 hPa 0,0 l/m 0 min 0 min 12 W/m 22,5 km/h (4 Bft) 95,74 %
06.11.2023 07:56 9,7 C 8,9 C 5,6 C 89 % 1000,3 hPa 0,0 l/m 0 min 0 min 13 W/m 25,7 km/h (4 Bft) 97,87 %
06.11.2023 07:58 9,7 C 8,9 C 5,6 C 89 % 1000,2 hPa 0,0 l/m 0 min 0 min 17 W/m 16,1 km/h (3 Bft) 97,87 %
06.11.2023 08:00 9,7 C 8,9 C 5,6 C 88 % 1000,2 hPa 0,0 l/m 0 min 0 min 17 W/m 22,5 km/h (4 Bft) 95,74 %
06.11.2023 08:02 9,7 C 8,9 C 5,6 C 88 % 1000,3 hPa 0,0 l/m 0 min 0 min 19 W/m 22,5 km/h (4 Bft) 95,74 %
06.11.2023 08:04 9,7 C 8,9 C 5,6 C 88 % 1000,3 hPa 0,0 l/m 0 min 0 min 17 W/m 25,7 km/h (4 Bft) 97,92 %
06.11.2023 08:08 9,7 C 8,9 C 5,6 C 88 % 1000,5 hPa 0,0 l/m 0 min 0 min 14 W/m 29,0 km/h (5 Bft) 98,94 %
06.11.2023 08:09 9,7 C 8,9 C 5,6 C 88 % 1000,4 hPa 0,0 l/m 0 min 0 min 15 W/m 12,9 km/h (3 Bft) 100,00 %
06.11.2023 08:10 9,7 C 8,9 C 5,6 C 88 % 1000,4 hPa 0,0 l/m 0 min 0 min 14 W/m 29,0 km/h (5 Bft) 100,00 %
06.11.2023 08:14 9,7 C 8,9 C 5,6 C 88 % 1000,5 hPa 0,0 l/m 0 min 0 min 25 W/m 19,3 km/h (3 Bft) 98,31 %
06.11.2023 08:16 9,7 C 8,9 C 5,6 C 88 % 1000,5 hPa 0,0 l/m 0 min 0 min 22 W/m 12,9 km/h (3 Bft) 100,00 %
06.11.2023 08:18 9,7 C 9,4 C 5,6 C 88 % 1000,5 hPa 0,0 l/m 0 min 0 min 23 W/m 25,7 km/h (4 Bft) 100,00 %
06.11.2023 08:20 9,8 C 9,4 C 6,1 C 88 % 1000,5 hPa 0,0 l/m 0 min 0 min 27 W/m 29,0 km/h (5 Bft) 100,00 %
06.11.2023 08:22 9,8 C 9,4 C 6,1 C 88 % 1000,6 hPa 0,0 l/m 0 min 0 min 26 W/m 25,7 km/h (4 Bft) 100,00 %
06.11.2023 08:24 9,8 C 9,4 C 6,1 C 88 % 1000,7 hPa 0,0 l/m 0 min 0 min 24 W/m 32,2 km/h (5 Bft) 100,00 %
06.11.2023 08:26 9,9 C 9,4 C 6,1 C 88 % 1000,6 hPa 0,0 l/m 0 min 0 min 23 W/m 29,0 km/h (5 Bft) 100,00 %
06.11.2023 08:28 10,0 C 9,4 C 6,1 C 87 % 1000,7 hPa 0,0 l/m 0 min 0 min 21 W/m 29,0 km/h (5 Bft) 100,00 %
06.11.2023 08:30 10,0 C 9,4 C 6,1 C 87 % 1000,7 hPa 0,0 l/m 0 min 0 min 25 W/m 25,7 km/h (4 Bft) 100,00 %
06.11.2023 08:32 10,1 C 9,4 C 6,1 C 87 % 1000,7 hPa 0,0 l/m 0 min 0 min 23 W/m 12,9 km/h (3 Bft) 100,00 %
06.11.2023 08:34 10,1 C 9,4 C 6,1 C 87 % 1000,7 hPa 0,0 l/m 0 min 0 min 28 W/m 29,0 km/h (5 Bft) 100,00 %
06.11.2023 08:36 10,1 C 9,4 C 6,1 C 87 % 1000,7 hPa 0,0 l/m 0 min 0 min 31 W/m 22,5 km/h (4 Bft) 97,87 %
06.11.2023 08:38 10,1 C 9,4 C 6,1 C 87 % 1000,8 hPa 0,0 l/m 0 min 0 min 39 W/m 19,3 km/h (3 Bft) 97,87 %
06.11.2023 08:40 10,1 C 9,4 C 6,1 C 87 % 1000,8 hPa 0,0 l/m 0 min 0 min 40 W/m 29,0 km/h (5 Bft) 95,74 %
06.11.2023 08:42 10,1 C 9,4 C 6,1 C 87 % 1000,8 hPa 0,0 l/m 0 min 0 min 42 W/m 22,5 km/h (4 Bft) 95,74 %
06.11.2023 08:44 10,1 C 9,4 C 6,1 C 87 % 1000,9 hPa 0,0 l/m 0 min 0 min 51 W/m 19,3 km/h (3 Bft) 97,87 %
06.11.2023 08:46 10,1 C 9,4 C 6,1 C 86 % 1000,8 hPa 0,0 l/m 0 min 0 min 57 W/m 45,1 km/h (6 Bft) 100,00 %
06.11.2023 08:48 10,1 C 10,0 C 6,1 C 87 % 1000,9 hPa 0,0 l/m 0 min 0 min 64 W/m 25,7 km/h (4 Bft) 97,14 %
06.11.2023 08:50 10,2 C 10,0 C 6,1 C 86 % 1000,8 hPa 0,0 l/m 0 min 0 min 63 W/m 22,5 km/h (4 Bft) 97,92 %
06.11.2023 08:52 10,2 C 10,0 C 6,1 C 86 % 1001,0 hPa 0,0 l/m 0 min 0 min 58 W/m 25,7 km/h (4 Bft) 93,75 %
06.11.2023 08:54 10,2 C 10,0 C 6,1 C 86 % 1001,0 hPa 0,0 l/m 0 min 0 min 60 W/m 29,0 km/h (5 Bft) 100,00 %
06.11.2023 08:56 10,2 C 10,0 C 6,1 C 86 % 1001,1 hPa 0,0 l/m 0 min 0 min 40 W/m 22,5 km/h (4 Bft) 100,00 %
06.11.2023 08:58 10,2 C 10,0 C 6,1 C 86 % 1001,0 hPa 0,0 l/m 0 min 0 min 32 W/m 12,9 km/h (3 Bft) 97,87 %
06.11.2023 09:00 10,3 C 10,0 C 6,1 C 86 % 1001,1 hPa 0,0 l/m 0 min 0 min 39 W/m 25,7 km/h (4 Bft) 97,87 %
06.11.2023 09:02 10,3 C 10,0 C 6,1 C 86 % 1001,0 hPa 0,0 l/m 0 min 0 min 48 W/m 22,5 km/h (4 Bft) 95,74 %
06.11.2023 09:04 10,3 C 10,0 C 6,1 C 86 % 1001,2 hPa 0,0 l/m 0 min 0 min 42 W/m 16,1 km/h (3 Bft) 98,00 %
06.11.2023 09:06 10,3 C 10,0 C 6,1 C 86 % 1001,1 hPa 0,0 l/m 0 min 0 min 43 W/m 25,7 km/h (4 Bft) 97,92 %
06.11.2023 09:08 10,3 C 10,0 C 6,1 C 86 % 1001,2 hPa 0,0 l/m 0 min 0 min 49 W/m 22,5 km/h (4 Bft) 95,65 %
06.11.2023 09:10 10,3 C 10,0 C 6,1 C 86 % 1001,2 hPa 0,0 l/m 0 min 0 min 48 W/m 29,0 km/h (5 Bft) 97,87 %
06.11.2023 09:12 10,3 C 10,0 C 6,7 C 85 % 1001,2 hPa 0,0 l/m 0 min 0 min 48 W/m 29,0 km/h (5 Bft) 97,87 %
06.11.2023 09:14 10,3 C 10,0 C 6,7 C 85 % 1001,1 hPa 0,0 l/m 0 min 0 min 60 W/m 19,3 km/h (3 Bft) 95,74 %
06.11.2023 09:16 10,3 C 10,0 C 6,7 C 86 % 1001,1 hPa 0,0 l/m 0 min 0 min 72 W/m 16,1 km/h (3 Bft) 95,74 %
06.11.2023 09:18 10,3 C 10,0 C 6,7 C 85 % 1001,2 hPa 0,0 l/m 0 min 0 min 63 W/m 32,2 km/h (5 Bft) 97,87 %
06.11.2023 09:20 10,3 C 10,0 C 6,7 C 85 % 1001,2 hPa 0,0 l/m 0 min 0 min 51 W/m 16,1 km/h (3 Bft) 97,87 %
06.11.2023 09:22 10,3 C 10,0 C 6,7 C 85 % 1001,3 hPa 0,0 l/m 0 min 0 min 57 W/m 29,0 km/h (5 Bft) 97,87 %
06.11.2023 09:24 10,4 C 10,0 C 6,7 C 85 % 1001,3 hPa 0,0 l/m 0 min 0 min 56 W/m 16,1 km/h (3 Bft) 95,74 %
06.11.2023 09:26 10,4 C 10,0 C 6,7 C 85 % 1001,3 hPa 0,0 l/m 0 min 0 min 59 W/m 19,3 km/h (3 Bft) 95,65 %
06.11.2023 09:28 10,4 C 10,0 C 6,7 C 85 % 1001,4 hPa 0,0 l/m 0 min 0 min 66 W/m 16,1 km/h (3 Bft) 97,87 %
06.11.2023 09:30 10,4 C 10,0 C 6,7 C 85 % 1001,3 hPa 0,0 l/m 0 min 0 min 72 W/m 16,1 km/h (3 Bft) 97,87 %
06.11.2023 09:32 10,4 C 10,0 C 6,7 C 84 % 1001,4 hPa 0,0 l/m 0 min 0 min 64 W/m 25,7 km/h (4 Bft) 95,74 %
06.11.2023 09:34 10,4 C 10,0 C 6,7 C 84 % 1001,4 hPa 0,0 l/m 0 min 0 min 57 W/m 29,0 km/h (5 Bft) 95,74 %
06.11.2023 09:36 10,5 C 10,0 C 6,7 C 84 % 1001,3 hPa 0,0 l/m 0 min 0 min 66 W/m 16,1 km/h (3 Bft) 91,49 %
06.11.2023 09:38 10,5 C 10,0 C 6,7 C 84 % 1001,4 hPa 0,0 l/m 0 min 0 min 67 W/m 16,1 km/h (3 Bft) 91,49 %
06.11.2023 09:40 10,6 C 10,0 C 6,7 C 84 % 1001,5 hPa 0,0 l/m 0 min 0 min 59 W/m 12,9 km/h (3 Bft) 93,62 %
06.11.2023 09:42 10,6 C 10,0 C 6,7 C 84 % 1001,4 hPa 0,0 l/m 0 min 0 min 75 W/m 22,5 km/h (4 Bft) 93,62 %
06.11.2023 09:44 10,6 C 10,0 C 6,7 C 84 % 1001,4 hPa 0,0 l/m 0 min 0 min 81 W/m 22,5 km/h (4 Bft) 93,62 %
06.11.2023 09:46 10,6 C 10,6 C 6,7 C 84 % 1001,4 hPa 0,0 l/m 0 min 0 min 99 W/m 32,2 km/h (5 Bft) 95,65 %
06.11.2023 09:48 10,7 C 11,1 C 6,7 C 84 % 1001,4 hPa 0,0 l/m 0 min 0 min 126 W/m 35,4 km/h (5 Bft) 95,74 %
06.11.2023 09:50 10,7 C 11,7 C 6,7 C 83 % 1001,4 hPa 0,0 l/m 2 min 0 min 161 W/m 22,5 km/h (4 Bft) 95,74 %
06.11.2023 09:52 10,8 C 11,7 C 6,7 C 83 % 1001,4 hPa 0,0 l/m 2 min 0 min 188 W/m 22,5 km/h (4 Bft) 95,74 %
06.11.2023 09:54 10,8 C 12,2 C 6,7 C 83 % 1001,4 hPa 0,0 l/m 2 min 0 min 156 W/m 19,3 km/h (3 Bft) 95,74 %
06.11.2023 09:56 10,9 C 12,2 C 6,7 C 83 % 1001,5 hPa 0,0 l/m 0 min 0 min 131 W/m 12,9 km/h (3 Bft) 93,62 %
06.11.2023 09:58 10,9 C 12,2 C 6,7 C 83 % 1001,5 hPa 0,0 l/m 0 min 0 min 102 W/m 22,5 km/h (4 Bft) 95,74 %
06.11.2023 10:00 10,9 C 11,7 C 6,7 C 83 % 1001,5 hPa 0,0 l/m 0 min 0 min 117 W/m 41,8 km/h (6 Bft) 95,74 %
06.11.2023 10:02 10,9 C 11,1 C 6,7 C 82 % 1001,5 hPa 0,0 l/m 0 min 0 min 61 W/m 22,5 km/h (4 Bft) 95,65 %
06.11.2023 10:04 10,9 C 10,6 C 6,7 C 82 % 1001,6 hPa 0,0 l/m 0 min 0 min 37 W/m 22,5 km/h (4 Bft) 95,74 %
06.11.2023 10:10 10,8 C 10,0 C 6,7 C 83 % 1001,7 hPa 0,0 l/m 0 min 0 min 47 W/m 25,7 km/h (4 Bft) 95,38 %
06.11.2023 10:12 10,7 C 10,0 C 6,7 C 83 % 1001,6 hPa 0,0 l/m 0 min 0 min 59 W/m 19,3 km/h (3 Bft) 97,83 %
06.11.2023 10:14 10,7 C 10,0 C 6,7 C 83 % 1001,6 hPa 0,0 l/m 0 min 0 min 68 W/m 22,5 km/h (4 Bft) 95,74 %
06.11.2023 10:16 10,7 C 10,6 C 6,7 C 83 % 1001,7 hPa 0,0 l/m 0 min 0 min 88 W/m 19,3 km/h (3 Bft) 97,87 %
06.11.2023 10:18 10,7 C 10,6 C 6,7 C 83 % 1001,7 hPa 0,0 l/m 0 min 0 min 91 W/m 32,2 km/h (5 Bft) 95,74 %
06.11.2023 10:20 10,7 C 10,6 C 6,7 C 83 % 1001,7 hPa 0,0 l/m 0 min 0 min 90 W/m 19,3 km/h (3 Bft) 100,00 %
06.11.2023 10:22 10,8 C 12,8 C 6,7 C 83 % 1001,7 hPa 0,0 l/m 2 min 0 min 163 W/m 19,3 km/h (3 Bft) 97,87 %
06.11.2023 10:24 10,8 C 12,2 C 6,7 C 83 % 1001,7 hPa 0,0 l/m 2 min 0 min 212 W/m 25,7 km/h (4 Bft) 97,87 %
06.11.2023 10:26 10,9 C 12,2 C 6,7 C 83 % 1001,7 hPa 0,0 l/m 0 min 0 min 97 W/m 19,3 km/h (3 Bft) 100,00 %
06.11.2023 10:28 10,9 C 11,7 C 6,7 C 82 % 1001,7 hPa 0,0 l/m 0 min 0 min 100 W/m 16,1 km/h (3 Bft) 100,00 %
06.11.2023 10:30 10,9 C 12,2 C 6,7 C 82 % 1001,7 hPa 0,0 l/m 0 min 0 min 105 W/m 19,3 km/h (3 Bft) 100,00 %
06.11.2023 10:32 11,0 C 12,2 C 7,2 C 83 % 1001,7 hPa 0,0 l/m 2 min 0 min 196 W/m 29,0 km/h (5 Bft) 97,83 %
06.11.2023 10:34 11,1 C 12,8 C 7,2 C 82 % 1001,8 hPa 0,0 l/m 0 min 0 min 146 W/m 25,7 km/h (4 Bft) 100,00 %
06.11.2023 10:36 11,2 C 13,9 C 7,2 C 82 % 1001,7 hPa 0,0 l/m 2 min 0 min 166 W/m 25,7 km/h (4 Bft) 97,87 %
06.11.2023 10:38 11,3 C 13,9 C 7,2 C 82 % 1001,7 hPa 0,0 l/m 0 min 0 min 147 W/m 25,7 km/h (4 Bft) 97,87 %
06.11.2023 10:40 11,4 C 13,3 C 7,2 C 82 % 1001,8 hPa 0,0 l/m 0 min 0 min 120 W/m 29,0 km/h (5 Bft) 100,00 %
06.11.2023 10:42 11,6 C 13,3 C 7,8 C 81 % 1001,8 hPa 0,0 l/m 0 min 0 min 128 W/m 25,7 km/h (4 Bft) 100,00 %
06.11.2023 10:44 11,7 C 12,8 C 7,8 C 81 % 1001,8 hPa 0,0 l/m 0 min 0 min 151 W/m 16,1 km/h (3 Bft) 100,00 %
06.11.2023 10:46 11,7 C 12,8 C 7,8 C 81 % 1001,8 hPa 0,0 l/m 0 min 0 min 129 W/m 25,7 km/h (4 Bft) 100,00 %
06.11.2023 10:48 11,8 C 12,2 C 7,8 C 81 % 1001,9 hPa 0,0 l/m 0 min 0 min 127 W/m 19,3 km/h (3 Bft) 100,00 %
06.11.2023 10:50 11,8 C 12,2 C 7,8 C 80 % 1001,8 hPa 0,0 l/m 0 min 0 min 90 W/m 22,5 km/h (4 Bft) 97,87 %
06.11.2023 10:52 11,9 C 12,2 C 7,8 C 80 % 1001,8 hPa 0,0 l/m 0 min 0 min 66 W/m 29,0 km/h (5 Bft) 97,87 %
06.11.2023 10:54 11,9 C 11,7 C 7,8 C 80 % 1001,8 hPa 0,0 l/m 0 min 0 min 52 W/m 29,0 km/h (5 Bft) 100,00 %
06.11.2023 10:56 11,9 C 11,7 C 7,8 C 80 % 1001,8 hPa 0,0 l/m 0 min 0 min 74 W/m 16,1 km/h (3 Bft) 100,00 %
06.11.2023 10:58 11,9 C 11,7 C 7,8 C 80 % 1001,9 hPa 0,0 l/m 0 min 0 min 64 W/m 22,5 km/h (4 Bft) 97,87 %
06.11.2023 11:00 11,9 C 11,7 C 7,8 C 80 % 1001,9 hPa 0,0 l/m 0 min 0 min 59 W/m 22,5 km/h (4 Bft) 100,00 %
06.11.2023 11:02 11,9 C 11,7 C 7,8 C 80 % 1001,9 hPa 0,0 l/m 0 min 0 min 74 W/m 35,4 km/h (5 Bft) 100,00 %
06.11.2023 11:04 11,9 C 11,7 C 7,8 C 80 % 1001,9 hPa 0,0 l/m 0 min 0 min 98 W/m 19,3 km/h (3 Bft) 100,00 %
06.11.2023 11:06 11,9 C 11,7 C 7,8 C 80 % 1001,9 hPa 0,0 l/m 0 min 0 min 75 W/m 29,0 km/h (5 Bft) 100,00 %
06.11.2023 11:08 11,9 C 11,7 C 7,8 C 79 % 1002,0 hPa 0,0 l/m 0 min 0 min 60 W/m 54,7 km/h (7 Bft) 100,00 %
06.11.2023 11:10 12,0 C 11,7 C 7,8 C 79 % 1001,9 hPa 0,0 l/m 0 min 0 min 58 W/m 22,5 km/h (4 Bft) 100,00 %
06.11.2023 11:12 11,9 C 11,7 C 7,8 C 79 % 1002,0 hPa 0,0 l/m 0 min 0 min 50 W/m 41,8 km/h (6 Bft) 97,87 %
06.11.2023 11:14 11,9 C 11,7 C 7,8 C 79 % 1002,0 hPa 0,0 l/m 0 min 0 min 45 W/m 29,0 km/h (5 Bft) 100,00 %
06.11.2023 11:16 11,9 C 11,1 C 7,8 C 79 % 1002,0 hPa 0,0 l/m 0 min 0 min 48 W/m 32,2 km/h (5 Bft) 100,00 %
06.11.2023 11:18 11,8 C 11,1 C 7,2 C 80 % 1001,9 hPa 0,0 l/m 0 min 0 min 50 W/m 19,3 km/h (3 Bft) 100,00 %
06.11.2023 11:20 11,8 C 11,1 C 7,2 C 79 % 1001,9 hPa 0,0 l/m 0 min 0 min 47 W/m 45,1 km/h (6 Bft) 97,83 %
06.11.2023 11:22 11,8 C 11,1 C 7,2 C 80 % 1001,9 hPa 0,0 l/m 0 min 0 min 55 W/m 22,5 km/h (4 Bft) 100,00 %
06.11.2023 11:24 11,8 C 11,7 C 7,2 C 80 % 1002,1 hPa 0,0 l/m 0 min 0 min 64 W/m 57,9 km/h (7 Bft) 100,00 %
06.11.2023 11:26 11,9 C 11,7 C 7,8 C 80 % 1001,9 hPa 0,0 l/m 0 min 0 min 58 W/m 38,6 km/h (5 Bft) 100,00 %
06.11.2023 11:28 11,9 C 11,7 C 7,8 C 80 % 1001,9 hPa 0,0 l/m 0 min 0 min 51 W/m 22,5 km/h (4 Bft) 97,87 %
06.11.2023 11:30 12,1 C 11,7 C 7,8 C 80 % 1001,9 hPa 0,0 l/m 0 min 0 min 55 W/m 29,0 km/h (5 Bft) 95,74 %
06.11.2023 11:32 12,1 C 11,7 C 7,8 C 80 % 1001,9 hPa 0,0 l/m 0 min 0 min 48 W/m 35,4 km/h (5 Bft) 100,00 %
06.11.2023 11:34 12,2 C 11,7 C 7,8 C 79 % 1001,9 hPa 0,0 l/m 0 min 0 min 69 W/m 29,0 km/h (5 Bft) 97,87 %
06.11.2023 11:35 12,2 C 12,2 C 7,8 C 79 % 1001,9 hPa 0,0 l/m 0 min 0 min 67 W/m 35,4 km/h (5 Bft) 100,00 %
06.11.2023 11:40 12,3 C 12,2 C 7,8 C 79 % 1001,9 hPa 0,0 l/m 0 min 0 min 103 W/m 25,7 km/h (4 Bft) 97,44 %
06.11.2023 11:42 12,4 C 12,2 C 8,3 C 79 % 1001,9 hPa 0,0 l/m 0 min 0 min 117 W/m 38,6 km/h (5 Bft) 97,14 %
06.11.2023 11:44 12,4 C 12,2 C 7,8 C 78 % 1002,0 hPa 0,0 l/m 0 min 0 min 96 W/m 35,4 km/h (5 Bft) 96,30 %
06.11.2023 11:46 12,4 C 12,2 C 8,3 C 78 % 1001,9 hPa 0,0 l/m 0 min 0 min 130 W/m 35,4 km/h (5 Bft) 92,00 %
06.11.2023 11:48 12,4 C 12,2 C 8,3 C 78 % 1002,0 hPa 0,0 l/m 0 min 0 min 104 W/m 32,2 km/h (5 Bft) 97,92 %
06.11.2023 11:50 12,4 C 12,2 C 8,3 C 78 % 1001,9 hPa 0,0 l/m 0 min 0 min 121 W/m 35,4 km/h (5 Bft) 97,14 %
06.11.2023 11:52 12,4 C 12,2 C 8,3 C 78 % 1001,8 hPa 0,0 l/m 0 min 0 min 128 W/m 25,7 km/h (4 Bft) 95,74 %
06.11.2023 11:54 12,4 C 12,2 C 8,3 C 78 % 1001,9 hPa 0,0 l/m 0 min 0 min 126 W/m 25,7 km/h (4 Bft) 94,55 %
06.11.2023 11:56 12,4 C 12,2 C 8,3 C 78 % 1001,9 hPa 0,0 l/m 0 min 0 min 93 W/m 12,9 km/h (3 Bft) 93,88 %
06.11.2023 11:58 12,4 C 12,2 C 8,3 C 78 % 1001,9 hPa 0,0 l/m 0 min 0 min 91 W/m 32,2 km/h (5 Bft) 95,92 %
06.11.2023 12:00 12,4 C 12,2 C 8,3 C 78 % 1002,0 hPa 0,0 l/m 0 min 0 min 103 W/m 29,0 km/h (5 Bft) 93,62 %
06.11.2023 12:02 12,4 C 11,7 C 8,3 C 78 % 1001,9 hPa 0,0 l/m 0 min 0 min 83 W/m 35,4 km/h (5 Bft) 95,83 %
06.11.2023 12:04 12,4 C 11,7 C 8,3 C 78 % 1001,9 hPa 0,0 l/m 0 min 0 min 86 W/m 38,6 km/h (5 Bft) 95,65 %
06.11.2023 12:07 12,4 C 12,2 C 8,3 C 78 % 1002,0 hPa 0,0 l/m 0 min 0 min 99 W/m 22,5 km/h (4 Bft) 98,33 %
06.11.2023 12:08 12,4 C 12,2 C 8,3 C 78 % 1002,0 hPa 0,0 l/m 0 min 0 min 124 W/m 16,1 km/h (3 Bft) 95,65 %
06.11.2023 12:12 12,4 C 12,2 C 8,3 C 78 % 1002,0 hPa 0,0 l/m 0 min 0 min 136 W/m 25,7 km/h (4 Bft) 97,87 %
06.11.2023 12:16 12,5 C 12,2 C 8,3 C 78 % 1002,0 hPa 0,0 l/m 0 min 0 min 159 W/m 25,7 km/h (4 Bft) 97,87 %
06.11.2023 12:18 12,6 C 12,2 C 8,3 C 78 % 1002,0 hPa 0,0 l/m 0 min 0 min 146 W/m 32,2 km/h (5 Bft) 97,87 %
06.11.2023 12:20 12,6 C 12,2 C 8,3 C 78 % 1002,0 hPa 0,0 l/m 0 min 0 min 114 W/m 29,0 km/h (5 Bft) 97,87 %
06.11.2023 12:22 12,6 C 12,2 C 8,3 C 78 % 1002,0 hPa 0,0 l/m 0 min 0 min 142 W/m 25,7 km/h (4 Bft) 95,74 %
06.11.2023 12:24 12,6 C 12,2 C 8,3 C 78 % 1002,1 hPa 0,0 l/m 0 min 0 min 131 W/m 32,2 km/h (5 Bft) 95,65 %
06.11.2023 12:26 12,6 C 12,2 C 8,3 C 78 % 1002,0 hPa 0,0 l/m 0 min 0 min 138 W/m 22,5 km/h (4 Bft) 93,62 %
06.11.2023 12:28 12,6 C 12,8 C 8,3 C 78 % 1002,1 hPa 0,0 l/m 0 min 0 min 184 W/m 32,2 km/h (5 Bft) 95,74 %
06.11.2023 12:30 12,7 C 12,8 C 8,9 C 78 % 1002,1 hPa 0,0 l/m 0 min 0 min 189 W/m 29,0 km/h (5 Bft) 95,74 %
06.11.2023 12:32 12,8 C 12,8 C 8,9 C 77 % 1002,0 hPa 0,0 l/m 0 min 0 min 151 W/m 35,4 km/h (5 Bft) 93,62 %
06.11.2023 12:34 12,8 C 12,8 C 8,9 C 77 % 1002,0 hPa 0,0 l/m 0 min 0 min 130 W/m 19,3 km/h (3 Bft) 95,74 %
06.11.2023 12:36 12,8 C 12,8 C 8,9 C 77 % 1002,1 hPa 0,0 l/m 0 min 0 min 169 W/m 38,6 km/h (5 Bft) 93,62 %
06.11.2023 12:38 12,8 C 12,2 C 8,3 C 77 % 1002,1 hPa 0,0 l/m 0 min 0 min 152 W/m 38,6 km/h (5 Bft) 91,30 %
06.11.2023 12:40 12,8 C 12,2 C 8,3 C 77 % 1002,1 hPa 0,0 l/m 0 min 0 min 129 W/m 35,4 km/h (5 Bft) 97,87 %
06.11.2023 12:42 12,7 C 12,2 C 8,3 C 77 % 1002,1 hPa 0,0 l/m 0 min 0 min 125 W/m 32,2 km/h (5 Bft) 100,00 %
06.11.2023 12:45 12,7 C 12,2 C 8,3 C 76 % 1002,1 hPa 0,0 l/m 0 min 0 min 120 W/m 38,6 km/h (5 Bft) 99,12 %
06.11.2023 12:50 12,6 C 12,2 C 8,3 C 77 % 1002,2 hPa 0,0 l/m 0 min 0 min 119 W/m 25,7 km/h (4 Bft) 98,25 %
06.11.2023 12:55 12,6 C 12,2 C 8,3 C 77 % 1002,3 hPa 0,0 l/m 0 min 0 min 82 W/m 29,0 km/h (5 Bft) 99,12 %
06.11.2023 13:00 12,6 C 12,2 C 8,3 C 78 % 1002,3 hPa 0,0 l/m 0 min 0 min 117 W/m 22,5 km/h (4 Bft) 99,12 %
06.11.2023 13:05 12,7 C 12,8 C 8,3 C 78 % 1002,3 hPa 0,0 l/m 0 min 0 min 156 W/m 19,3 km/h (3 Bft) 99,12 %
06.11.2023 13:10 12,7 C 12,2 C 8,3 C 77 % 1002,3 hPa 0,0 l/m 0 min 0 min 122 W/m 29,0 km/h (5 Bft) 100,00 %
06.11.2023 13:15 12,7 C 12,2 C 8,3 C 77 % 1002,3 hPa 0,0 l/m 0 min 0 min 121 W/m 32,2 km/h (5 Bft) 100,00 %
06.11.2023 13:20 12,7 C 12,8 C 8,3 C 78 % 1002,3 hPa 0,0 l/m 0 min 0 min 106 W/m 25,7 km/h (4 Bft) 100,00 %
06.11.2023 13:25 12,7 C 12,8 C 8,3 C 77 % 1002,3 hPa 0,0 l/m 5 min 0 min 186 W/m 32,2 km/h (5 Bft) 100,00 %
06.11.2023 13:30 12,8 C 12,8 C 8,9 C 77 % 1002,3 hPa 0,0 l/m 5 min 0 min 456 W/m 38,6 km/h (5 Bft) 100,00 %
06.11.2023 13:35 13,0 C 12,8 C 8,9 C 77 % 1002,3 hPa 0,0 l/m 0 min 0 min 132 W/m 25,7 km/h (4 Bft) 100,00 %
06.11.2023 13:40 13,0 C 12,8 C 8,9 C 77 % 1002,4 hPa 0,0 l/m 0 min 0 min 167 W/m 32,2 km/h (5 Bft) 100,00 %
06.11.2023 13:45 13,0 C 12,8 C 8,9 C 76 % 1002,3 hPa 0,0 l/m 0 min 0 min 103 W/m 29,0 km/h (5 Bft) 100,00 %
06.11.2023 13:50 12,9 C 12,2 C 8,3 C 75 % 1002,3 hPa 0,0 l/m 0 min 0 min 69 W/m 25,7 km/h (4 Bft) 100,00 %
06.11.2023 13:55 12,8 C 12,2 C 8,3 C 76 % 1002,3 hPa 0,0 l/m 0 min 0 min 56 W/m 32,2 km/h (5 Bft) 100,00 %
06.11.2023 14:00 12,7 C 12,2 C 8,3 C 77 % 1002,3 hPa 0,0 l/m 0 min 0 min 117 W/m 22,5 km/h (4 Bft) 98,25 %
06.11.2023 14:05 12,8 C 12,8 C 8,3 C 76 % 1002,3 hPa 0,0 l/m 5 min 0 min 356 W/m 45,1 km/h (6 Bft) 100,00 %
06.11.2023 14:10 12,9 C 12,8 C 8,3 C 76 % 1002,3 hPa 0,0 l/m 5 min 0 min 334 W/m 29,0 km/h (5 Bft) 100,00 %
06.11.2023 14:15 13,0 C 12,8 C 8,3 C 75 % 1002,2 hPa 0,0 l/m 5 min 0 min 200 W/m 25,7 km/h (4 Bft) 100,00 %
06.11.2023 14:20 12,9 C 12,2 C 8,3 C 75 % 1002,3 hPa 0,0 l/m 0 min 0 min 124 W/m 22,5 km/h (4 Bft) 100,00 %
06.11.2023 14:25 12,8 C 12,2 C 8,3 C 75 % 1002,3 hPa 0,0 l/m 0 min 0 min 88 W/m 25,7 km/h (4 Bft) 100,00 %
06.11.2023 14:30 12,8 C 12,2 C 8,3 C 75 % 1002,3 hPa 0,0 l/m 0 min 0 min 127 W/m 35,4 km/h (5 Bft) 100,00 %
06.11.2023 14:35 12,8 C 12,8 C 8,3 C 74 % 1002,3 hPa 0,0 l/m 0 min 0 min 118 W/m 38,6 km/h (5 Bft) 100,00 %
06.11.2023 14:40 12,9 C 12,8 C 8,9 C 74 % 1002,2 hPa 0,0 l/m 5 min 0 min 143 W/m 29,0 km/h (5 Bft) 100,00 %
06.11.2023 14:45 13,1 C 12,8 C 8,9 C 73 % 1002,3 hPa 0,0 l/m 5 min 0 min 134 W/m 57,9 km/h (7 Bft) 100,00 %
06.11.2023 14:50 13,1 C 12,8 C 8,9 C 73 % 1002,4 hPa 0,0 l/m 0 min 0 min 95 W/m 35,4 km/h (5 Bft) 100,00 %
06.11.2023 14:55 12,9 C 12,2 C 8,3 C 73 % 1002,4 hPa 0,0 l/m 0 min 0 min 78 W/m 25,7 km/h (4 Bft) 100,00 %
06.11.2023 15:00 12,9 C 12,8 C 8,9 C 74 % 1002,4 hPa 0,0 l/m 0 min 0 min 89 W/m 32,2 km/h (5 Bft) 97,37 %
06.11.2023 15:05 12,9 C 12,2 C 8,3 C 74 % 1002,4 hPa 0,0 l/m 0 min 0 min 82 W/m 41,8 km/h (6 Bft) 96,49 %
06.11.2023 15:10 12,8 C 12,8 C 8,3 C 74 % 1002,4 hPa 0,0 l/m 0 min 0 min 77 W/m 16,1 km/h (3 Bft) 98,25 %
06.11.2023 15:15 12,8 C 12,2 C 8,3 C 74 % 1002,4 hPa 0,0 l/m 0 min 0 min 81 W/m 32,2 km/h (5 Bft) 97,37 %
06.11.2023 15:20 12,8 C 12,2 C 8,3 C 73 % 1002,4 hPa 0,0 l/m 0 min 0 min 71 W/m 35,4 km/h (5 Bft) 98,25 %
06.11.2023 15:25 12,8 C 12,2 C 8,3 C 73 % 1002,4 hPa 0,0 l/m 0 min 0 min 61 W/m 41,8 km/h (6 Bft) 98,25 %
06.11.2023 15:30 12,7 C 12,2 C 8,3 C 73 % 1002,4 hPa 0,0 l/m 0 min 0 min 43 W/m 29,0 km/h (5 Bft) 99,12 %
06.11.2023 15:35 12,7 C 12,2 C 8,3 C 74 % 1002,4 hPa 0,0 l/m 0 min 0 min 46 W/m 32,2 km/h (5 Bft) 97,37 %
06.11.2023 15:40 12,7 C 12,2 C 8,3 C 74 % 1002,5 hPa 0,0 l/m 0 min 0 min 57 W/m 35,4 km/h (5 Bft) 100,00 %
06.11.2023 15:45 12,7 C 12,2 C 8,3 C 75 % 1002,5 hPa 0,0 l/m 0 min 0 min 49 W/m 22,5 km/h (4 Bft) 100,00 %
06.11.2023 15:50 12,6 C 12,2 C 8,3 C 74 % 1002,6 hPa 0,0 l/m 0 min 0 min 42 W/m 38,6 km/h (5 Bft) 100,00 %
06.11.2023 15:55 12,6 C 12,2 C 8,3 C 74 % 1002,6 hPa 0,0 l/m 0 min 0 min 54 W/m 25,7 km/h (4 Bft) 100,00 %
06.11.2023 16:00 12,6 C 12,2 C 8,3 C 74 % 1002,7 hPa 0,0 l/m 0 min 0 min 34 W/m 25,7 km/h (4 Bft) 100,00 %
06.11.2023 16:05 12,6 C 11,7 C 7,8 C 75 % 1002,6 hPa 0,0 l/m 0 min 0 min 29 W/m 29,0 km/h (5 Bft) 100,00 %
06.11.2023 16:10 12,5 C 11,7 C 7,8 C 75 % 1002,7 hPa 0,0 l/m 0 min 0 min 27 W/m 19,3 km/h (3 Bft) 100,00 %
06.11.2023 16:15 12,4 C 11,7 C 7,8 C 75 % 1002,8 hPa 0,0 l/m 0 min 0 min 11 W/m 38,6 km/h (5 Bft) 100,00 %
06.11.2023 16:20 12,4 C 11,7 C 6,7 C 77 % 1003,0 hPa 0,0 l/m 0 min 5 min 9 W/m 22,5 km/h (4 Bft) 100,00 %
06.11.2023 16:25 12,1 C 11,1 C 6,1 C 79 % 1003,0 hPa 0,0 l/m 0 min 5 min 6 W/m 22,5 km/h (4 Bft) 100,00 %
06.11.2023 16:30 11,8 C 10,6 C 6,1 C 82 % 1003,1 hPa 0,0 l/m 0 min 5 min 5 W/m 38,6 km/h (5 Bft) 100,00 %
06.11.2023 16:35 11,5 C 10,0 C 5,6 C 83 % 1003,3 hPa 0,0 l/m 0 min 5 min 1 W/m 19,3 km/h (3 Bft) 100,00 %
06.11.2023 16:40 11,2 C 10,0 C 5,6 C 85 % 1003,4 hPa 0,2 l/m 0 min 5 min 0 W/m 29,0 km/h (5 Bft) 100,00 %
06.11.2023 16:45 10,9 C 10,0 C 5,6 C 87 % 1003,4 hPa 0,0 l/m 0 min 5 min 7 W/m 19,3 km/h (3 Bft) 100,00 %
06.11.2023 16:50 10,8 C 9,4 C 5,6 C 88 % 1003,4 hPa 0,0 l/m 0 min 0 min 6 W/m 16,1 km/h (3 Bft) 100,00 %
06.11.2023 16:55 10,6 C 9,4 C 5,0 C 88 % 1003,5 hPa 0,0 l/m 0 min 0 min 1 W/m 16,1 km/h (3 Bft) 100,00 %
06.11.2023 17:00 10,4 C 9,4 C 5,0 C 89 % 1003,5 hPa 0,0 l/m 0 min 0 min 0 W/m 12,9 km/h (3 Bft) 100,00 %
06.11.2023 17:05 10,3 C 9,4 C 5,0 C 89 % 1003,6 hPa 0,0 l/m 0 min 0 min 0 W/m 19,3 km/h (3 Bft) 100,00 %
06.11.2023 17:10 10,2 C 9,4 C 5,0 C 89 % 1003,7 hPa 0,0 l/m 0 min 0 min 0 W/m 16,1 km/h (3 Bft) 99,12 %
06.11.2023 17:15 10,2 C 9,4 C 5,0 C 90 % 1003,7 hPa 0,0 l/m 0 min 0 min 0 W/m 16,1 km/h (3 Bft) 100,00 %
06.11.2023 17:20 10,1 C 9,4 C 5,0 C 90 % 1003,7 hPa 0,0 l/m 0 min 0 min 0 W/m 22,5 km/h (4 Bft) 100,00 %
06.11.2023 17:25 10,0 C 9,4 C 5,0 C 90 % 1003,8 hPa 0,0 l/m 0 min 0 min 0 W/m 16,1 km/h (3 Bft) 100,00 %
06.11.2023 17:30 9,9 C 9,4 C 5,0 C 90 % 1003,8 hPa 0,0 l/m 0 min 0 min 0 W/m 19,3 km/h (3 Bft) 98,25 %
06.11.2023 17:35 9,9 C 9,4 C 5,0 C 90 % 1003,9 hPa 0,0 l/m 0 min 0 min 0 W/m 12,9 km/h (3 Bft) 98,25 %
06.11.2023 17:40 9,9 C 8,9 C 5,0 C 90 % 1004,0 hPa 0,0 l/m 0 min 0 min 0 W/m 16,1 km/h (3 Bft) 96,49 %
06.11.2023 17:45 9,8 C 8,9 C 5,0 C 90 % 1004,0 hPa 0,0 l/m 0 min 0 min 0 W/m 12,9 km/h (3 Bft) 98,25 %
06.11.2023 17:50 9,8 C 8,9 C 5,0 C 90 % 1004,1 hPa 0,0 l/m 0 min 0 min 0 W/m 12,9 km/h (3 Bft) 98,25 %
06.11.2023 17:55 9,7 C 8,9 C 5,0 C 91 % 1004,2 hPa 0,0 l/m 0 min 0 min 0 W/m 19,3 km/h (3 Bft) 98,25 %
06.11.2023 18:00 9,7 C 8,9 C 5,0 C 91 % 1004,3 hPa 0,0 l/m 0 min 0 min 0 W/m 19,3 km/h (3 Bft) 96,49 %
06.11.2023 18:05 9,6 C 8,9 C 5,0 C 91 % 1004,4 hPa 0,0 l/m 0 min 0 min 0 W/m 22,5 km/h (4 Bft) 100,00 %
06.11.2023 18:10 9,6 C 8,9 C 5,0 C 91 % 1004,4 hPa 0,0 l/m 0 min 0 min 0 W/m 22,5 km/h (4 Bft) 99,12 %
06.11.2023 18:15 9,6 C 8,9 C 5,0 C 91 % 1004,4 hPa 0,0 l/m 0 min 0 min 0 W/m 19,3 km/h (3 Bft) 100,00 %
06.11.2023 18:20 9,6 C 8,9 C 5,6 C 91 % 1004,5 hPa 0,0 l/m 0 min 0 min 0 W/m 12,9 km/h (3 Bft) 99,12 %
06.11.2023 18:25 9,6 C 8,9 C 5,6 C 91 % 1004,6 hPa 0,0 l/m 0 min 0 min 0 W/m 22,5 km/h (4 Bft) 100,00 %
06.11.2023 18:30 9,6 C 8,9 C 5,6 C 91 % 1004,6 hPa 0,0 l/m 0 min 0 min 0 W/m 12,9 km/h (3 Bft) 100,00 %
06.11.2023 18:35 9,6 C 8,9 C 5,6 C 91 % 1004,7 hPa 0,0 l/m 0 min 0 min 0 W/m 25,7 km/h (4 Bft) 99,12 %
06.11.2023 18:40 9,6 C 8,9 C 5,6 C 91 % 1004,8 hPa 0,0 l/m 0 min 0 min 0 W/m 16,1 km/h (3 Bft) 100,00 %
06.11.2023 18:45 9,6 C 8,9 C 5,6 C 91 % 1004,8 hPa 0,0 l/m 0 min 0 min 0 W/m 22,5 km/h (4 Bft) 100,00 %
06.11.2023 18:50 9,6 C 8,9 C 5,6 C 91 % 1004,9 hPa 0,0 l/m 0 min 0 min 0 W/m 19,3 km/h (3 Bft) 100,00 %
06.11.2023 18:55 9,6 C 8,9 C 5,6 C 91 % 1005,0 hPa 0,0 l/m 0 min 0 min 0 W/m 22,5 km/h (4 Bft) 100,00 %
06.11.2023 19:00 9,6 C 8,9 C 5,6 C 90 % 1005,1 hPa 0,0 l/m 0 min 0 min 0 W/m 19,3 km/h (3 Bft) 100,00 %
06.11.2023 19:04 9,6 C 8,9 C 5,6 C 90 % 1005,1 hPa 0,0 l/m 0 min 0 min 0 W/m 12,9 km/h (3 Bft) 100,00 %
06.11.2023 19:07 9,6 C 8,9 C 5,6 C 90 % 1005,1 hPa 0,0 l/m 0 min 0 min 0 W/m 22,5 km/h (4 Bft) 100,00 %
06.11.2023 19:08 9,6 C 8,9 C 5,6 C 90 % 1005,2 hPa 0,0 l/m 0 min 0 min 0 W/m 16,1 km/h (3 Bft) 100,00 %
06.11.2023 19:10 9,6 C 8,9 C 5,6 C 90 % 1005,2 hPa 0,0 l/m 0 min 0 min 0 W/m 22,5 km/h (4 Bft) 99,12 %
06.11.2023 19:12 9,6 C 8,9 C 5,6 C 90 % 1005,2 hPa 0,0 l/m 0 min 0 min 0 W/m 12,9 km/h (3 Bft) 100,00 %
06.11.2023 19:14 9,6 C 8,9 C 5,6 C 90 % 1005,2 hPa 0,0 l/m 0 min 0 min 0 W/m 19,3 km/h (3 Bft) 96,77 %
06.11.2023 19:16 9,6 C 8,9 C 5,6 C 90 % 1005,3 hPa 0,0 l/m 0 min 0 min 0 W/m 19,3 km/h (3 Bft) 95,74 %
06.11.2023 19:18 9,6 C 8,9 C 5,6 C 90 % 1005,3 hPa 0,0 l/m 0 min 0 min 0 W/m 16,1 km/h (3 Bft) 97,87 %
06.11.2023 19:20 9,6 C 8,9 C 5,6 C 90 % 1005,3 hPa 0,0 l/m 0 min 0 min 0 W/m 16,1 km/h (3 Bft) 97,87 %
06.11.2023 19:22 9,6 C 8,9 C 5,6 C 90 % 1005,3 hPa 0,0 l/m 0 min 0 min 0 W/m 22,5 km/h (4 Bft) 95,74 %
06.11.2023 19:24 9,6 C 8,9 C 5,6 C 90 % 1005,4 hPa 0,0 l/m 0 min 0 min 0 W/m 12,9 km/h (3 Bft) 97,87 %
06.11.2023 19:26 9,6 C 8,9 C 5,6 C 90 % 1005,4 hPa 0,0 l/m 0 min 0 min 0 W/m 16,1 km/h (3 Bft) 95,74 %
06.11.2023 19:28 9,6 C 8,9 C 5,6 C 90 % 1005,3 hPa 0,0 l/m 0 min 0 min 0 W/m 16,1 km/h (3 Bft) 97,87 %
06.11.2023 19:30 9,5 C 8,9 C 5,6 C 90 % 1005,4 hPa 0,0 l/m 0 min 0 min 0 W/m 22,5 km/h (4 Bft) 97,87 %
06.11.2023 19:32 9,5 C 8,9 C 5,6 C 90 % 1005,5 hPa 0,0 l/m 0 min 0 min 0 W/m 16,1 km/h (3 Bft) 97,87 %
06.11.2023 19:34 9,5 C 8,3 C 5,6 C 90 % 1005,4 hPa 0,0 l/m 0 min 0 min 0 W/m 16,1 km/h (3 Bft) 97,83 %
06.11.2023 19:36 9,4 C 8,3 C 5,6 C 89 % 1005,4 hPa 0,0 l/m 0 min 0 min 0 W/m 9,7 km/h (2 Bft) 95,74 %
06.11.2023 19:38 9,4 C 8,3 C 5,6 C 90 % 1005,5 hPa 0,0 l/m 0 min 0 min 0 W/m 16,1 km/h (3 Bft) 97,87 %
06.11.2023 19:40 9,4 C 8,3 C 5,0 C 90 % 1005,5 hPa 0,0 l/m 0 min 0 min 0 W/m 6,4 km/h (2 Bft) 95,74 %
06.11.2023 19:42 9,4 C 8,3 C 5,0 C 89 % 1005,6 hPa 0,0 l/m 0 min 0 min 0 W/m 9,7 km/h (2 Bft) 97,87 %
06.11.2023 19:44 9,4 C 8,3 C 5,0 C 89 % 1005,6 hPa 0,0 l/m 0 min 0 min 0 W/m 22,5 km/h (4 Bft) 97,87 %
06.11.2023 19:46 9,4 C 8,3 C 5,0 C 89 % 1005,6 hPa 0,0 l/m 0 min 0 min 0 W/m 16,1 km/h (3 Bft) 97,87 %
06.11.2023 19:48 9,4 C 8,3 C 5,6 C 89 % 1005,7 hPa 0,0 l/m 0 min 0 min 0 W/m 22,5 km/h (4 Bft) 97,87 %
06.11.2023 19:50 9,4 C 8,3 C 5,6 C 89 % 1005,7 hPa 0,0 l/m 0 min 0 min 0 W/m 16,1 km/h (3 Bft) 97,87 %
06.11.2023 19:52 9,4 C 8,3 C 5,0 C 89 % 1005,7 hPa 0,0 l/m 0 min 0 min 0 W/m 12,9 km/h (3 Bft) 97,87 %
06.11.2023 19:54 9,3 C 8,3 C 5,0 C 89 % 1005,7 hPa 0,0 l/m 0 min 0 min 0 W/m 16,1 km/h (3 Bft) 93,62 %
06.11.2023 19:56 9,3 C 8,3 C 5,0 C 89 % 1005,7 hPa 0,0 l/m 0 min 0 min 0 W/m 12,9 km/h (3 Bft) 94,12 %
06.11.2023 19:58 9,3 C 8,3 C 5,0 C 90 % 1005,7 hPa 0,0 l/m 0 min 0 min 0 W/m 12,9 km/h (3 Bft) 93,62 %
06.11.2023 20:00 9,3 C 8,3 C 5,0 C 90 % 1005,7 hPa 0,0 l/m 0 min 0 min 0 W/m 16,1 km/h (3 Bft) 97,87 %
06.11.2023 20:02 9,3 C 8,3 C 5,0 C 90 % 1005,8 hPa 0,0 l/m 0 min 0 min 0 W/m 16,1 km/h (3 Bft) 97,87 %
06.11.2023 20:04 9,3 C 8,3 C 5,0 C 90 % 1005,7 hPa 0,0 l/m 0 min 0 min 0 W/m 6,4 km/h (2 Bft) 93,02 %
06.11.2023 20:06 9,3 C 8,3 C 5,0 C 90 % 1005,8 hPa 0,0 l/m 0 min 0 min 0 W/m 9,7 km/h (2 Bft) 97,87 %
06.11.2023 20:08 9,2 C 8,3 C 5,0 C 90 % 1005,8 hPa 0,0 l/m 0 min 0 min 0 W/m 12,9 km/h (3 Bft) 97,87 %
06.11.2023 20:10 9,2 C 8,3 C 5,0 C 90 % 1005,9 hPa 0,0 l/m 0 min 0 min 0 W/m 16,1 km/h (3 Bft) 97,87 %
06.11.2023 20:12 9,2 C 8,3 C 5,0 C 90 % 1005,8 hPa 0,0 l/m 0 min 0 min 0 W/m 29,0 km/h (5 Bft) 95,74 %
06.11.2023 20:14 9,2 C 8,3 C 5,0 C 90 % 1005,9 hPa 0,0 l/m 0 min 0 min 0 W/m 16,1 km/h (3 Bft) 95,74 %
06.11.2023 20:16 9,2 C 8,3 C 5,0 C 90 % 1005,9 hPa 0,0 l/m 0 min 0 min 0 W/m 12,9 km/h (3 Bft) 48,78 %
06.11.2023 20:18 9,2 C 8,3 C 5,0 C 90 % 1005,8 hPa 0,0 l/m 0 min 0 min 0 W/m 19,3 km/h (3 Bft) 97,50 %
06.11.2023 20:20 9,2 C 8,3 C 5,0 C 90 % 1005,9 hPa 0,0 l/m 0 min 0 min 0 W/m 12,9 km/h (3 Bft) 100,00 %
06.11.2023 20:22 9,2 C 8,3 C 5,0 C 90 % 1005,9 hPa 0,0 l/m 0 min 0 min 0 W/m 22,5 km/h (4 Bft) 100,00 %
06.11.2023 20:24 9,2 C 8,3 C 5,0 C 90 % 1005,9 hPa 0,0 l/m 0 min 0 min 0 W/m 12,9 km/h (3 Bft) 100,00 %
06.11.2023 20:26 9,2 C 8,3 C 5,0 C 90 % 1005,9 hPa 0,0 l/m 0 min 0 min 0 W/m 12,9 km/h (3 Bft) 100,00 %
06.11.2023 20:28 9,1 C 8,3 C 5,0 C 90 % 1006,0 hPa 0,0 l/m 0 min 0 min 0 W/m 9,7 km/h (2 Bft) 100,00 %
06.11.2023 20:30 9,1 C 8,3 C 5,0 C 90 % 1006,0 hPa 0,0 l/m 0 min 0 min 0 W/m 12,9 km/h (3 Bft) 100,00 %
06.11.2023 20:32 9,1 C 8,3 C 5,0 C 90 % 1006,0 hPa 0,0 l/m 0 min 0 min 0 W/m 12,9 km/h (3 Bft) 100,00 %
06.11.2023 20:34 9,1 C 8,3 C 5,0 C 90 % 1006,0 hPa 0,0 l/m 0 min 0 min 0 W/m 12,9 km/h (3 Bft) 100,00 %
06.11.2023 20:36 9,1 C 8,3 C 5,0 C 90 % 1006,0 hPa 0,0 l/m 0 min 0 min 0 W/m 16,1 km/h (3 Bft) 97,87 %
06.11.2023 20:38 9,1 C 8,3 C 5,0 C 90 % 1006,1 hPa 0,0 l/m 0 min 0 min 0 W/m 16,1 km/h (3 Bft) 100,00 %
06.11.2023 20:40 9,1 C 8,3 C 5,0 C 90 % 1006,1 hPa 0,0 l/m 0 min 0 min 0 W/m 16,1 km/h (3 Bft) 100,00 %
06.11.2023 20:42 9,1 C 8,3 C 5,0 C 91 % 1006,1 hPa 0,0 l/m 0 min 0 min 0 W/m 16,1 km/h (3 Bft) 100,00 %
06.11.2023 20:44 9,1 C 8,3 C 5,0 C 91 % 1006,1 hPa 0,0 l/m 0 min 0 min 0 W/m 12,9 km/h (3 Bft) 95,74 %
06.11.2023 20:46 9,1 C 8,3 C 5,0 C 91 % 1006,2 hPa 0,0 l/m 0 min 0 min 0 W/m 16,1 km/h (3 Bft) 100,00 %
06.11.2023 20:48 9,1 C 8,3 C 5,0 C 91 % 1006,1 hPa 0,0 l/m 0 min 0 min 0 W/m 16,1 km/h (3 Bft) 100,00 %
06.11.2023 20:50 9,1 C 8,3 C 5,0 C 91 % 1006,2 hPa 0,0 l/m 0 min 0 min 0 W/m 16,1 km/h (3 Bft) 100,00 %
06.11.2023 20:52 9,1 C 8,3 C 5,0 C 91 % 1006,2 hPa 0,0 l/m 0 min 0 min 0 W/m 6,4 km/h (2 Bft) 100,00 %
06.11.2023 20:54 9,1 C 8,3 C 5,0 C 91 % 1006,2 hPa 0,0 l/m 0 min 0 min 0 W/m 9,7 km/h (2 Bft) 95,74 %
06.11.2023 20:56 9,1 C 8,3 C 5,0 C 91 % 1006,2 hPa 0,0 l/m 0 min 0 min 0 W/m 12,9 km/h (3 Bft) 97,87 %
06.11.2023 20:58 9,1 C 8,3 C 5,0 C 91 % 1006,2 hPa 0,0 l/m 0 min 0 min 0 W/m 12,9 km/h (3 Bft) 97,87 %
06.11.2023 21:00 9,1 C 8,3 C 5,0 C 91 % 1006,3 hPa 0,0 l/m 0 min 0 min 0 W/m 12,9 km/h (3 Bft) 97,87 %
06.11.2023 21:02 9,1 C 8,3 C 5,0 C 91 % 1006,3 hPa 0,0 l/m 0 min 0 min 0 W/m 9,7 km/h (2 Bft) 97,83 %
06.11.2023 21:04 9,1 C 8,3 C 5,0 C 91 % 1006,3 hPa 0,0 l/m 0 min 0 min 0 W/m 9,7 km/h (2 Bft) 98,11 %
06.11.2023 21:10 9,1 C 8,3 C 5,0 C 91 % 1006,3 hPa 0,0 l/m 0 min 0 min 0 W/m 12,9 km/h (3 Bft) 97,69 %
06.11.2023 21:12 9,1 C 8,3 C 5,0 C 91 % 1006,3 hPa 0,0 l/m 0 min 0 min 0 W/m 19,3 km/h (3 Bft) 97,87 %
06.11.2023 21:14 9,1 C 8,3 C 5,0 C 91 % 1006,3 hPa 0,0 l/m 0 min 0 min 0 W/m 22,5 km/h (4 Bft) 93,62 %
06.11.2023 21:16 9,1 C 8,3 C 5,0 C 91 % 1006,4 hPa 0,0 l/m 0 min 0 min 0 W/m 19,3 km/h (3 Bft) 95,74 %
06.11.2023 21:18 9,1 C 8,3 C 5,0 C 91 % 1006,3 hPa 0,0 l/m 0 min 0 min 0 W/m 12,9 km/h (3 Bft) 93,62 %
06.11.2023 21:20 9,1 C 8,3 C 5,0 C 91 % 1006,4 hPa 0,0 l/m 0 min 0 min 0 W/m 12,9 km/h (3 Bft) 93,62 %
06.11.2023 21:22 9,1 C 8,3 C 5,0 C 91 % 1006,4 hPa 0,0 l/m 0 min 0 min 0 W/m 9,7 km/h (2 Bft) 95,74 %
06.11.2023 21:24 9,1 C 8,3 C 5,0 C 91 % 1006,4 hPa 0,0 l/m 0 min 0 min 0 W/m 12,9 km/h (3 Bft) 95,65 %
06.11.2023 21:26 9,1 C 8,3 C 5,0 C 91 % 1006,4 hPa 0,0 l/m 0 min 0 min 0 W/m 19,3 km/h (3 Bft) 95,74 %
06.11.2023 21:28 9,1 C 8,3 C 5,0 C 91 % 1006,5 hPa 0,0 l/m 0 min 0 min 0 W/m 22,5 km/h (4 Bft) 97,87 %
06.11.2023 21:30 9,1 C 8,3 C 5,0 C 91 % 1006,5 hPa 0,0 l/m 0 min 0 min 0 W/m 12,9 km/h (3 Bft) 97,87 %
06.11.2023 21:32 9,1 C 8,3 C 5,0 C 91 % 1006,5 hPa 0,0 l/m 0 min 0 min 0 W/m 16,1 km/h (3 Bft) 97,87 %
06.11.2023 21:34 9,1 C 8,3 C 5,0 C 91 % 1006,5 hPa 0,0 l/m 0 min 0 min 0 W/m 12,9 km/h (3 Bft) 93,62 %
06.11.2023 21:36 9,1 C 8,3 C 5,0 C 91 % 1006,5 hPa 0,0 l/m 0 min 0 min 0 W/m 19,3 km/h (3 Bft) 100,00 %
06.11.2023 21:38 9,2 C 8,3 C 5,0 C 91 % 1006,5 hPa 0,0 l/m 0 min 0 min 0 W/m 12,9 km/h (3 Bft) 97,87 %
06.11.2023 21:40 9,2 C 8,3 C 5,0 C 91 % 1006,5 hPa 0,0 l/m 0 min 0 min 0 W/m 16,1 km/h (3 Bft) 97,87 %
06.11.2023 21:42 9,2 C 8,3 C 5,0 C 91 % 1006,6 hPa 0,0 l/m 0 min 0 min 0 W/m 16,1 km/h (3 Bft) 95,74 %
06.11.2023 21:44 9,2 C 8,3 C 5,0 C 91 % 1006,6 hPa 0,0 l/m 0 min 0 min 0 W/m 19,3 km/h (3 Bft) 95,74 %
06.11.2023 21:46 9,2 C 8,3 C 5,0 C 91 % 1006,6 hPa 0,0 l/m 0 min 0 min 0 W/m 19,3 km/h (3 Bft) 97,87 %
06.11.2023 21:48 9,2 C 8,3 C 5,0 C 91 % 1006,6 hPa 0,0 l/m 0 min 0 min 0 W/m 12,9 km/h (3 Bft) 97,83 %
06.11.2023 21:50 9,2 C 8,3 C 5,0 C 91 % 1006,6 hPa 0,0 l/m 0 min 0 min 0 W/m 12,9 km/h (3 Bft) 97,87 %
06.11.2023 21:52 9,2 C 8,3 C 5,0 C 91 % 1006,6 hPa 0,0 l/m 0 min 0 min 0 W/m 9,7 km/h (2 Bft) 95,74 %
06.11.2023 21:54 9,2 C 8,3 C 5,0 C 91 % 1006,6 hPa 0,0 l/m 0 min 0 min 0 W/m 19,3 km/h (3 Bft) 95,74 %
06.11.2023 21:56 9,2 C 8,3 C 5,0 C 91 % 1006,7 hPa 0,0 l/m 0 min 0 min 0 W/m 16,1 km/h (3 Bft) 97,87 %
06.11.2023 21:58 9,2 C 8,3 C 5,0 C 91 % 1006,7 hPa 0,0 l/m 0 min 0 min 0 W/m 16,1 km/h (3 Bft) 95,74 %
06.11.2023 22:00 9,2 C 8,3 C 5,0 C 91 % 1006,6 hPa 0,0 l/m 0 min 0 min 0 W/m 16,1 km/h (3 Bft) 97,87 %
06.11.2023 22:02 9,2 C 8,3 C 5,0 C 91 % 1006,7 hPa 0,0 l/m 0 min 0 min 0 W/m 29,0 km/h (5 Bft) 93,62 %
06.11.2023 22:04 9,2 C 8,3 C 5,0 C 91 % 1006,7 hPa 0,0 l/m 0 min 0 min 0 W/m 25,7 km/h (4 Bft) 90,20 %
06.11.2023 22:06 9,2 C 8,3 C 5,0 C 91 % 1006,7 hPa 0,0 l/m 0 min 0 min 0 W/m 16,1 km/h (3 Bft) 93,75 %
06.11.2023 22:08 9,2 C 8,3 C 5,0 C 91 % 1006,7 hPa 0,0 l/m 0 min 0 min 0 W/m 12,9 km/h (3 Bft) 95,74 %
06.11.2023 22:10 9,2 C 8,3 C 5,0 C 91 % 1006,7 hPa 0,0 l/m 0 min 0 min 0 W/m 12,9 km/h (3 Bft) 93,62 %
06.11.2023 22:12 9,2 C 8,3 C 5,0 C 91 % 1006,8 hPa 0,0 l/m 0 min 0 min 0 W/m 16,1 km/h (3 Bft) 97,87 %
06.11.2023 22:14 9,2 C 8,3 C 5,0 C 91 % 1006,8 hPa 0,0 l/m 0 min 0 min 0 W/m 16,1 km/h (3 Bft) 95,74 %
06.11.2023 22:16 9,2 C 8,3 C 5,0 C 91 % 1006,7 hPa 0,0 l/m 0 min 0 min 0 W/m 19,3 km/h (3 Bft) 95,74 %
06.11.2023 22:18 9,2 C 8,3 C 5,0 C 91 % 1006,7 hPa 0,0 l/m 0 min 0 min 0 W/m 22,5 km/h (4 Bft) 97,87 %
06.11.2023 22:20 9,2 C 8,3 C 5,0 C 91 % 1006,8 hPa 0,0 l/m 0 min 0 min 0 W/m 12,9 km/h (3 Bft) 95,74 %
06.11.2023 22:22 9,2 C 8,3 C 5,0 C 91 % 1006,8 hPa 0,0 l/m 0 min 0 min 0 W/m 19,3 km/h (3 Bft) 97,83 %
06.11.2023 22:24 9,2 C 8,3 C 5,0 C 91 % 1006,8 hPa 0,0 l/m 0 min 0 min 0 W/m 12,9 km/h (3 Bft) 97,87 %
06.11.2023 22:26 9,2 C 8,3 C 5,0 C 91 % 1006,8 hPa 0,0 l/m 0 min 0 min 0 W/m 19,3 km/h (3 Bft) 97,87 %
06.11.2023 22:28 9,2 C 8,3 C 5,0 C 91 % 1006,8 hPa 0,0 l/m 0 min 0 min 0 W/m 12,9 km/h (3 Bft) 95,74 %
06.11.2023 22:30 9,2 C 8,3 C 5,0 C 91 % 1006,9 hPa 0,0 l/m 0 min 0 min 0 W/m 16,1 km/h (3 Bft) 93,62 %
06.11.2023 22:32 9,2 C 8,3 C 5,0 C 91 % 1006,9 hPa 0,0 l/m 0 min 0 min 0 W/m 12,9 km/h (3 Bft) 97,87 %
06.11.2023 22:34 9,2 C 8,3 C 5,0 C 91 % 1007,0 hPa 0,0 l/m 0 min 0 min 0 W/m 25,7 km/h (4 Bft) 95,74 %
06.11.2023 22:36 9,2 C 8,3 C 5,0 C 91 % 1006,9 hPa 0,0 l/m 0 min 0 min 0 W/m 22,5 km/h (4 Bft) 97,87 %
06.11.2023 22:38 9,2 C 8,3 C 5,0 C 91 % 1006,9 hPa 0,0 l/m 0 min 0 min 0 W/m 16,1 km/h (3 Bft) 95,74 %
06.11.2023 22:40 9,2 C 8,3 C 5,0 C 91 % 1006,9 hPa 0,0 l/m 0 min 0 min 0 W/m 16,1 km/h (3 Bft) 95,74 %
06.11.2023 22:42 9,2 C 8,3 C 5,0 C 91 % 1006,9 hPa 0,0 l/m 0 min 0 min 0 W/m 19,3 km/h (3 Bft) 100,00 %
06.11.2023 22:44 9,2 C 8,3 C 5,0 C 91 % 1006,9 hPa 0,0 l/m 0 min 0 min 0 W/m 16,1 km/h (3 Bft) 100,00 %
06.11.2023 22:46 9,2 C 8,3 C 5,0 C 91 % 1007,1 hPa 0,0 l/m 0 min 0 min 0 W/m 22,5 km/h (4 Bft) 93,62 %
06.11.2023 22:48 9,2 C 8,3 C 5,0 C 91 % 1007,0 hPa 0,0 l/m 0 min 0 min 0 W/m 19,3 km/h (3 Bft) 97,87 %
06.11.2023 22:50 9,2 C 8,3 C 5,0 C 91 % 1007,0 hPa 0,0 l/m 0 min 0 min 0 W/m 12,9 km/h (3 Bft) 95,74 %
06.11.2023 22:52 9,2 C 8,3 C 5,0 C 91 % 1007,0 hPa 0,0 l/m 0 min 0 min 0 W/m 16,1 km/h (3 Bft) 97,87 %
06.11.2023 22:54 9,2 C 8,3 C 5,0 C 91 % 1007,1 hPa 0,0 l/m 0 min 0 min 0 W/m 22,5 km/h (4 Bft) 95,74 %
06.11.2023 22:56 9,2 C 8,3 C 5,0 C 91 % 1007,1 hPa 0,0 l/m 0 min 0 min 0 W/m 12,9 km/h (3 Bft) 97,87 %
06.11.2023 22:58 9,2 C 8,3 C 5,0 C 91 % 1007,0 hPa 0,0 l/m 0 min 0 min 0 W/m 12,9 km/h (3 Bft) 97,83 %
06.11.2023 23:00 9,2 C 8,3 C 5,0 C 91 % 1007,1 hPa 0,0 l/m 0 min 0 min 0 W/m 12,9 km/h (3 Bft) 95,74 %
06.11.2023 23:03 9,2 C 8,3 C 5,0 C 91 % 1007,1 hPa 0,0 l/m 0 min 0 min 0 W/m 12,9 km/h (3 Bft) 98,59 %
06.11.2023 23:06 9,2 C 8,3 C 5,0 C 91 % 1007,1 hPa 0,0 l/m 0 min 0 min 0 W/m 16,1 km/h (3 Bft) 97,22 %
06.11.2023 23:08 9,2 C 8,3 C 5,0 C 91 % 1007,1 hPa 0,0 l/m 0 min 0 min 0 W/m 19,3 km/h (3 Bft) 97,87 %
06.11.2023 23:10 9,2 C 8,3 C 5,0 C 91 % 1007,1 hPa 0,0 l/m 0 min 0 min 0 W/m 19,3 km/h (3 Bft) 97,87 %
06.11.2023 23:12 9,1 C 8,3 C 5,0 C 91 % 1007,1 hPa 0,0 l/m 0 min 0 min 0 W/m 16,1 km/h (3 Bft) 97,87 %
06.11.2023 23:14 9,1 C 8,3 C 5,0 C 91 % 1007,1 hPa 0,0 l/m 0 min 0 min 0 W/m 22,5 km/h (4 Bft) 97,87 %
06.11.2023 23:16 9,1 C 8,3 C 5,0 C 91 % 1007,1 hPa 0,0 l/m 0 min 0 min 0 W/m 19,3 km/h (3 Bft) 100,00 %
06.11.2023 23:18 9,1 C 8,3 C 5,0 C 91 % 1007,1 hPa 0,0 l/m 0 min 0 min 0 W/m 12,9 km/h (3 Bft) 45,95 %
06.11.2023 23:20 9,1 C 8,3 C 5,0 C 91 % 1007,1 hPa 0,0 l/m 0 min 0 min 0 W/m 19,3 km/h (3 Bft) 100,00 %
06.11.2023 23:22 9,1 C 8,3 C 5,0 C 91 % 1007,2 hPa 0,0 l/m 0 min 0 min 0 W/m 12,9 km/h (3 Bft) 100,00 %
06.11.2023 23:24 9,1 C 8,3 C 5,0 C 91 % 1007,2 hPa 0,0 l/m 0 min 0 min 0 W/m 19,3 km/h (3 Bft) 97,87 %
06.11.2023 23:26 9,1 C 8,3 C 5,0 C 91 % 1007,2 hPa 0,0 l/m 0 min 0 min 0 W/m 16,1 km/h (3 Bft) 100,00 %
06.11.2023 23:28 9,0 C 7,8 C 5,0 C 91 % 1007,2 hPa 0,0 l/m 0 min 0 min 0 W/m 12,9 km/h (3 Bft) 100,00 %
06.11.2023 23:30 9,0 C 7,8 C 5,0 C 91 % 1007,2 hPa 0,0 l/m 0 min 0 min 0 W/m 16,1 km/h (3 Bft) 100,00 %
06.11.2023 23:32 9,0 C 7,8 C 5,0 C 91 % 1007,2 hPa 0,0 l/m 0 min 0 min 0 W/m 9,7 km/h (2 Bft) 100,00 %
06.11.2023 23:34 8,9 C 7,8 C 5,0 C 91 % 1007,2 hPa 0,0 l/m 0 min 0 min 0 W/m 19,3 km/h (3 Bft) 97,87 %
06.11.2023 23:36 8,9 C 7,8 C 5,0 C 91 % 1007,3 hPa 0,0 l/m 0 min 0 min 0 W/m 12,9 km/h (3 Bft) 97,87 %
06.11.2023 23:38 8,9 C 7,8 C 5,0 C 91 % 1007,3 hPa 0,0 l/m 0 min 0 min 0 W/m 16,1 km/h (3 Bft) 100,00 %
06.11.2023 23:40 8,9 C 8,3 C 5,0 C 91 % 1007,3 hPa 0,0 l/m 0 min 0 min 0 W/m 16,1 km/h (3 Bft) 100,00 %
06.11.2023 23:42 8,9 C 8,3 C 5,0 C 91 % 1007,4 hPa 0,0 l/m 0 min 0 min 0 W/m 16,1 km/h (3 Bft) 100,00 %
06.11.2023 23:44 8,9 C 8,3 C 5,0 C 92 % 1007,4 hPa 0,0 l/m 0 min 0 min 0 W/m 16,1 km/h (3 Bft) 97,87 %
06.11.2023 23:46 8,9 C 8,3 C 5,0 C 92 % 1007,4 hPa 0,0 l/m 0 min 0 min 0 W/m 19,3 km/h (3 Bft) 100,00 %
06.11.2023 23:48 9,0 C 8,3 C 5,0 C 92 % 1007,3 hPa 0,0 l/m 0 min 0 min 0 W/m 22,5 km/h (4 Bft) 93,48 %
06.11.2023 23:50 8,9 C 8,3 C 5,0 C 92 % 1007,4 hPa 0,0 l/m 0 min 0 min 0 W/m 16,1 km/h (3 Bft) 100,00 %
06.11.2023 23:52 8,9 C 8,3 C 5,0 C 92 % 1007,4 hPa 0,0 l/m 0 min 0 min 0 W/m 19,3 km/h (3 Bft) 100,00 %
06.11.2023 23:54 8,9 C 8,3 C 5,0 C 92 % 1007,4 hPa 0,0 l/m 0 min 0 min 0 W/m 19,3 km/h (3 Bft) 100,00 %
06.11.2023 23:56 9,0 C 8,3 C 5,0 C 92 % 1007,4 hPa 0,0 l/m 0 min 0 min 0 W/m 25,7 km/h (4 Bft) 100,00 %
06.11.2023 23:58 9,0 C 8,3 C 5,0 C 92 % 1007,5 hPa 0,0 l/m 0 min 0 min 0 W/m 19,3 km/h (3 Bft) 100,00 %
_ Min-Zeit 23:34 23:28 16:55 14:45 00:00 - - - - 19:40 23:18
Minimum _ 8,9 C 7,8 C 5,0 C 73 % 994,5 hPa - - - - 6,4 km/h (2 Bft) 45,95 %
_ Max-Zeit 14:45 10:36 12:30 23:44 23:58 04:20 13:25 16:20 13:30 11:24 00:07
Maximum _ 13,1 C 13,9 C 8,9 C 92 % 1007,5 hPa 0,2 l/m 5 min 5 min 456 W/m 57,9 km/h
SW (7 Bft)
100,00 %
Durchschnitt _ 10,5 C 9,9 C 6,3 C 86 % 1001,5 hPa #0,4 l/m #49 min. #40 min. 87 W/m 22,7 km/h (4 Bft) 97,79 %
© 2023 W. Hausmann